GFSFLT2_925_thetae_000.txt.gz
Theta_e
335 336 334 333 332 332 332 330 329 330 331 329 325 324 326 325 324 329 331 334 335 334 332 331 330 327 329 329 329 329 329 328
333 335 335 335 334 329 329 330 331 330 330 331 330 328 328 331 329 328 329 331 331 331 331 331 329 326 324 327 328 328 329 328
331 334 333 332 329 326 328 328 328 329 331 330 330 331 329 329 328 328 328 326 327 328 329 329 326 323 322 322 324 327 328 328
322 328 330 329 325 325 333 333 332 331 331 330 329 325 325 327 324 321 320 319 322 327 328 327 325 326 323 315 318 316 317 323
317 320 324 327 328 329 330 330 330 327 327 326 323 321 320 321 321 319 320 319 317 315 326 325 326 327 324 321 323 325 325 324
312 316 321 322 323 324 324 323 321 321 324 326 326 325 323 320 321 321 321 318 314 315 315 317 320 327 326 324 323 324 323 320
310 312 315 317 319 318 317 316 315 315 316 319 321 322 323 321 314 311 313 314 313 314 315 320 322 321 322 323 323 321 320 318
308 309 311 312 315 314 312 310 309 309 310 313 316 317 321 323 320 319 321 322 323 322 320 319 321 322 323 325 325 324 320 319
306 306 307 308 309 308 307 306 305 306 309 312 313 314 316 317 316 315 315 318 320 322 324 324 324 324 323 323 322 323 322 320
305 303 305 306 306 306 305 305 305 306 309 309 309 309 309 310 311 312 313 314 315 316 317 320 321 322 322 320 320 321 322 321
304 304 304 304 304 304 305 305 304 305 306 306 306 305 305 305 306 307 306 306 308 308 309 312 313 315 316 321 321 320 322 321
304 303 303 303 303 303 303 304 304 304 304 304 304 303 303 302 303 304 303 302 301 301 302 303 306 311 309 315 321 322 322 322
303 303 303 302 303 303 303 303 303 304 303 302 303 302 302 302 302 302 302 302 302 301 300 300 301 304 304 309 313 318 322 321
304 303 303 303 303 303 303 303 302 302 302 303 303 302 302 301 301 301 301 301 301 301 301 300 300 301 302 302 314 318 319 318
304 304 303 302 302 302 302 301 301 302 302 302 303 303 303 303 302 301 301 301 301 301 300 300 300 299 300 302 304 311 309 313
305 304 303 302 302 302 302 302 302 302 301 302 302 302 302 302 302 302 302 301 301 300 299 300 300 300 299 299 302 300 302 304
305 303 303 302 302 302 302 302 301 301 301 301 301 301 301 301 301 302 302 302 301 301 301 300 299 299 299 299 299 299 299 303
305 304 303 302 302 301 301 301 301 301 300 300 299 299 299 299 299 299 299 299 299 300 300 300 300 300 299 299 298 299 299 299
304 303 303 302 301 301 301 301 300 299 298 298 297 297 296 296 295 295 295 295 295 296 296 297 298 298 298 298 298 298 297 297
304 302 302 302 300 300 299 298 297 297 295 295 294 294 293 293 293 293 293 293 293 293 293 294 294 296 297 298 298 297 296 296

GFSFLT2_925_thetae_003.txt.gz
Theta_e
336 337 336 335 332 328 329 329 328 328 330 330 328 326 324 329 329 328 331 332 332 332 332 331 330 328 327 328 328 327 328 331
334 335 335 335 334 330 326 326 328 329 329 329 329 329 329 325 330 330 327 328 327 326 328 329 329 329 324 326 327 327 329 328
334 335 335 332 329 326 331 330 329 330 330 328 329 333 331 330 327 329 328 325 323 325 326 326 327 326 324 322 324 325 327 329
325 331 333 332 328 326 332 333 331 331 331 331 329 330 330 329 327 327 326 325 321 319 318 317 325 327 326 322 319 322 325 327
322 326 330 333 330 331 332 330 330 329 329 328 328 325 325 326 326 326 321 319 318 320 319 318 315 317 324 325 322 322 322 324
319 325 327 327 327 328 328 327 325 325 326 326 325 324 325 325 325 323 321 320 319 319 318 315 315 315 317 320 324 323 325 326
317 320 323 325 324 322 321 319 318 318 318 320 321 320 322 322 321 320 319 319 318 318 313 312 314 316 319 316 319 324 324 323
316 317 318 319 320 319 316 314 313 312 314 316 319 319 320 321 320 319 318 320 321 322 322 323 322 321 322 320 319 322 325 324
313 313 314 315 315 312 310 309 310 311 313 314 314 314 315 314 313 314 314 316 315 316 319 321 322 322 324 323 323 322 323 324
311 307 310 310 311 310 309 309 309 311 312 311 311 310 311 311 311 310 309 310 311 312 313 314 317 319 319 320 323 323 322 322
310 308 309 309 308 308 309 309 308 309 309 308 308 307 306 306 307 307 306 305 305 304 304 307 309 312 315 313 315 321 322 322
309 308 307 307 307 307 307 307 308 307 307 307 307 306 305 305 305 306 305 304 304 304 303 303 303 304 307 306 309 318 321 322
308 308 307 306 306 306 306 307 307 307 306 306 306 305 304 305 304 304 304 304 304 304 304 303 303 303 303 305 304 306 312 321
308 308 307 306 306 306 306 307 306 306 306 306 306 305 305 304 304 304 303 303 304 304 303 303 303 303 302 302 306 307 308 314
309 308 307 307 306 306 305 305 305 305 305 305 306 306 305 305 305 304 304 304 303 303 303 303 302 302 302 302 303 306 307 303
310 309 308 307 306 305 305 305 305 305 305 304 304 304 305 305 304 303 303 303 303 303 302 302 302 302 303 302 303 302 304 304
311 310 308 307 306 305 304 304 305 304 304 304 304 304 303 303 303 302 302 302 302 302 302 302 302 303 303 303 303 303 303 305
311 310 309 307 306 305 304 304 304 304 303 303 303 301 301 301 300 300 300 300 300 300 300 301 301 301 302 302 302 303 303 304
311 310 309 308 306 305 304 304 304 303 303 301 300 299 298 298 298 297 296 296 296 296 296 297 297 298 299 300 300 300 301 301
311 310 309 307 306 305 304 303 303 302 300 299 297 297 297 296 295 295 294 294 294 294 294 295 295 296 297 297 298 299 300 300

GFSFLT2_925_thetae_006.txt.gz
Theta_e
337 339 336 336 333 328 327 328 327 327 328 328 327 325 327 325 323 326 328 329 331 331 330 330 330 328 326 326 328 330 330 331
334 334 337 337 334 327 327 326 327 328 328 329 329 328 328 329 330 327 328 330 329 329 329 330 329 329 327 322 324 325 325 324
333 335 336 334 332 327 332 332 331 331 330 327 329 332 330 330 328 328 326 325 323 325 324 324 326 326 326 324 322 321 323 327
324 329 332 333 331 327 333 332 332 332 332 332 331 331 329 328 328 326 324 324 322 321 321 322 319 321 322 326 324 320 322 326
322 326 331 333 332 331 331 331 330 329 330 329 329 326 326 326 326 327 326 322 317 316 318 319 319 318 317 318 321 323 323 322
320 325 328 328 328 328 328 328 327 326 327 326 323 324 322 325 324 323 320 320 321 320 316 317 316 318 320 318 318 319 320 324
318 321 325 327 325 324 323 321 320 319 320 320 322 321 323 322 321 321 320 321 321 320 319 315 314 315 315 317 317 317 318 319
318 318 321 322 323 322 319 317 315 314 316 318 320 320 321 322 320 319 318 319 319 319 321 321 321 322 322 319 320 320 318 317
316 317 318 319 320 318 315 313 312 313 315 316 316 317 315 315 314 314 314 314 314 314 315 315 317 319 321 322 323 322 322 322
314 313 314 314 315 312 311 310 311 312 314 313 312 312 312 312 311 311 308 308 308 307 306 306 311 313 316 317 316 318 321 322
313 311 309 311 311 311 310 310 309 311 312 311 310 309 308 307 308 307 305 305 305 304 304 303 303 304 305 310 308 306 308 314
312 311 310 310 309 309 309 309 309 309 309 309 308 307 306 306 306 306 306 305 305 305 305 304 304 304 303 303 304 305 309 312
311 310 310 309 308 308 308 308 308 308 308 307 307 307 306 305 305 305 305 305 304 304 304 304 303 304 304 303 303 303 304 305
311 310 310 309 308 308 307 308 308 308 307 307 306 306 305 305 305 304 304 304 304 304 305 304 304 303 304 304 303 303 304 303
313 311 310 309 308 308 308 307 307 306 306 306 306 306 306 306 305 305 304 304 304 304 303 303 303 304 303 304 304 304 303 303
313 313 311 310 309 308 307 307 306 306 305 305 305 306 306 306 305 305 304 303 303 303 304 303 303 304 304 304 303 303 303 303
313 313 312 311 310 309 307 307 306 306 305 305 305 304 304 304 304 303 303 303 302 302 301 301 302 303 303 304 303 303 303 303
312 312 312 312 311 309 308 306 306 306 305 305 304 303 302 301 301 300 299 299 299 298 298 298 298 299 299 300 301 301 301 301
313 312 312 312 311 311 308 307 305 305 305 304 302 302 300 299 298 297 297 296 296 295 295 295 296 297 297 297 297 298 299 299
313 312 312 312 311 311 310 307 306 305 304 303 300 298 298 298 297 296 295 294 294 294 294 294 295 295 295 296 297 297 298 298

GFSFLT2_925_thetae_009.txt.gz
Theta_e
338 336 336 334 332 325 325 326 327 326 327 328 327 327 327 326 328 330 330 329 328 329 330 330 329 328 327 327 329 330 331 330
336 337 336 333 332 326 330 326 326 327 327 329 328 328 329 329 329 327 328 329 330 330 330 330 329 328 328 326 326 327 327 328
330 334 334 333 332 328 332 331 330 330 330 327 328 331 328 328 328 326 324 323 325 326 326 327 327 326 325 325 324 323 323 324
323 322 329 330 332 328 332 331 331 331 331 329 330 330 328 326 326 327 325 324 323 320 322 321 324 324 323 324 325 324 319 321
320 324 328 332 331 331 331 330 330 329 329 329 330 329 327 327 325 325 326 324 320 317 317 318 318 318 318 318 319 322 320 321
319 321 326 329 328 331 329 329 328 328 328 326 321 322 322 325 325 323 321 318 316 317 316 315 313 312 315 318 318 320 319 321
319 319 325 326 325 325 325 325 324 323 321 323 322 323 322 321 322 319 320 321 320 321 321 320 319 320 320 319 316 317 317 317
318 318 320 323 324 323 322 319 319 318 317 317 320 321 322 322 321 320 318 317 316 315 316 317 318 319 321 321 321 322 322 322
317 317 319 320 322 322 319 316 313 313 314 315 317 318 319 316 317 314 314 312 312 309 307 305 308 311 313 315 317 318 318 320
316 315 316 317 319 316 313 313 311 311 313 313 311 314 313 312 312 311 311 307 307 305 304 303 303 303 303 304 310 305 305 305
314 313 311 313 313 313 311 311 310 311 312 313 311 308 308 309 309 308 305 305 305 304 304 304 303 304 303 304 303 302 302 303
312 312 311 309 311 310 310 310 309 309 312 312 310 308 306 306 307 306 305 305 305 305 304 304 303 303 303 303 303 303 303 303
312 311 310 310 309 308 308 309 309 309 309 308 310 308 307 306 305 306 305 305 304 305 304 304 304 303 303 303 302 302 303 302
312 312 310 310 309 308 308 307 307 307 308 308 308 307 307 306 305 305 304 304 303 303 304 304 304 303 304 302 300 302 302 303
313 312 311 310 309 309 308 307 307 308 307 308 307 306 306 305 305 305 304 304 304 304 304 303 303 304 302 303 302 302 302 303
314 313 312 312 310 309 308 308 307 307 307 306 306 306 306 306 306 306 305 304 303 304 304 302 301 302 302 302 302 303 303 302
314 314 313 313 312 311 309 308 308 307 307 306 306 305 306 306 306 304 303 303 303 301 300 300 298 298 299 299 299 300 300 300
312 312 312 312 312 312 311 310 308 307 306 306 305 304 304 303 303 302 301 299 297 296 296 295 295 294 294 296 297 298 298 298
313 313 313 312 312 312 312 311 310 308 307 306 305 303 300 299 298 298 298 297 298 297 295 294 293 293 294 295 295 296 296 296
314 313 313 313 313 312 311 311 311 310 307 305 304 300 298 297 296 295 295 295 295 295 295 293 293 293 294 294 294 294 295 295

GFSFLT2_925_thetae_012.txt.gz
Theta_e
332 334 333 332 327 323 323 325 326 326 327 327 326 326 326 324 324 325 327 326 326 326 327 325 328 327 328 327 327 328 330 332
335 335 333 331 326 329 326 325 326 327 327 327 327 328 328 328 327 326 326 327 329 329 329 330 329 328 328 327 324 325 327 327
335 335 334 332 327 331 330 329 329 329 327 327 328 329 328 327 327 327 326 326 326 328 328 328 328 327 326 325 325 323 323 321
325 326 333 332 331 330 331 330 329 329 329 329 329 329 328 326 325 325 324 323 322 322 322 322 324 324 322 322 324 325 324 321
320 319 323 331 329 329 331 330 328 330 330 329 330 330 327 326 326 325 325 324 320 318 316 316 318 318 318 318 318 320 319 319
319 318 329 328 330 332 331 329 330 329 328 328 326 326 325 323 325 323 323 318 317 316 317 318 317 316 318 318 317 316 317 319
319 318 321 327 326 330 329 328 328 328 326 324 323 322 322 321 322 319 317 318 319 319 318 318 316 317 318 319 320 321 321 320
318 318 316 323 324 324 323 322 322 321 320 319 321 321 321 321 321 320 320 317 316 312 310 309 310 313 314 314 316 317 318 318
317 317 316 317 320 322 322 320 318 317 316 315 314 319 320 321 320 319 317 315 311 308 305 303 303 303 303 304 305 309 305 304
317 316 316 317 316 319 317 313 313 311 311 311 312 313 315 316 314 314 312 308 308 305 303 303 303 303 303 303 303 303 303 302
316 315 314 316 314 315 314 312 312 311 310 311 312 311 311 311 311 311 310 305 305 304 304 303 303 303 303 303 303 303 302 302
314 313 311 310 310 311 311 311 310 310 310 311 311 312 309 306 308 308 306 305 304 304 304 303 304 303 303 302 303 302 302 302
313 312 311 310 310 310 310 309 309 309 309 308 311 311 309 307 305 306 306 305 304 305 304 304 304 303 302 303 303 302 302 301
313 312 312 311 310 310 309 309 308 308 307 308 310 309 309 308 306 305 305 305 305 304 303 304 303 302 303 301 299 301 300 302
314 313 313 312 312 310 309 308 308 307 307 307 307 308 309 308 307 306 305 304 304 304 304 303 303 303 302 302 300 299 301 300
313 313 313 312 311 310 309 309 307 308 307 307 307 307 308 307 306 305 305 304 304 304 303 302 301 300 299 300 299 300 299 299
313 313 313 313 312 312 311 309 309 309 308 307 307 306 306 306 306 305 305 305 304 301 299 296 294 294 294 294 293 294 296 297
312 312 312 312 312 312 311 311 311 309 309 308 307 305 305 306 305 306 302 299 298 298 297 295 295 296 297 296 294 295 295 295
312 312 312 311 311 310 310 311 311 310 310 308 306 304 303 302 300 297 296 295 295 296 297 298 299 298 295 294 293 293 294 295
311 311 311 310 309 309 309 309 309 308 308 309 306 303 299 296 295 295 296 297 297 297 296 297 295 293 294 294 293 293 293 294

GFSFLT2_925_thetae_018.txt.gz
Theta_e
331 330 329 327 325 323 323 324 325 326 326 326 325 324 324 324 326 326 326 326 326 327 327 325 327 328 327 327 327 326 326 326
333 332 331 329 325 326 325 325 325 326 326 326 326 326 326 326 326 326 326 327 327 328 328 329 328 328 327 326 325 325 324 323
333 333 332 331 327 328 327 327 326 327 326 325 326 327 326 324 323 325 325 324 324 325 325 325 325 325 324 321 319 322 323 323
334 334 333 332 330 328 329 328 328 328 327 326 327 327 327 324 322 322 323 324 324 322 322 321 320 319 319 320 319 317 317 318
333 331 328 328 331 330 328 329 329 329 328 328 327 327 328 326 325 325 323 320 321 319 316 315 313 313 313 314 314 315 317 318
328 322 318 320 326 329 329 329 329 329 328 328 327 327 328 327 326 322 322 320 317 314 314 315 315 315 314 314 313 315 316 317
322 319 319 324 328 327 328 328 329 328 328 327 326 326 324 321 320 319 321 319 315 316 315 312 311 309 308 309 310 313 313 310
321 319 322 325 323 324 327 329 329 328 328 327 325 323 321 321 321 320 320 318 318 315 311 306 303 303 302 302 302 306 303 303
320 319 321 321 320 321 323 324 323 323 323 322 320 318 316 317 320 320 320 319 318 315 311 305 302 302 302 302 302 302 302 302
319 318 318 317 317 317 318 319 319 318 317 316 314 312 311 311 313 315 318 319 317 313 309 304 303 303 303 303 302 302 302 302
318 318 317 316 315 316 316 316 316 313 312 312 311 311 311 311 310 310 313 315 314 311 307 304 303 303 303 303 302 302 302 301
317 317 316 315 315 315 314 313 313 311 311 310 310 310 310 311 311 310 310 311 310 309 306 304 304 303 303 303 302 302 302 301
316 316 315 314 314 314 311 311 311 310 310 310 309 309 309 310 311 311 310 309 308 308 306 304 304 303 303 303 303 302 301 301
315 314 313 312 313 312 310 309 309 309 310 310 309 309 308 308 309 310 310 308 308 308 305 304 303 303 303 300 299 300 301 301
314 313 312 310 309 308 308 308 308 308 309 309 310 308 307 307 307 307 308 309 307 307 306 304 303 303 302 302 298 299 296 298
311 310 310 310 309 309 309 309 308 309 309 309 309 309 309 308 307 306 307 308 307 306 305 304 303 302 301 301 300 298 294 293
310 310 310 310 309 309 308 308 308 307 307 306 307 307 307 306 306 305 304 307 306 304 304 303 302 301 297 298 294 295 295 293
311 311 310 310 309 308 307 306 305 304 304 304 305 305 305 305 305 304 303 304 303 301 299 297 296 296 295 296 295 294 293 293
310 310 309 308 306 307 306 304 305 305 304 304 304 304 304 303 302 302 300 298 297 296 297 298 298 297 295 295 295 294 292 292
309 308 308 307 306 307 305 304 304 302 302 302 303 303 301 299 298 297 297 297 297 297 297 297 296 295 293 292 292 292 292 292

GFSFLT2_925_thetae_021.txt.gz
Theta_e
326 326 327 325 324 323 324 323 323 324 325 325 324 324 324 324 324 324 324 325 325 326 327 326 327 327 327 326 326 325 325 324
330 330 329 328 325 326 325 325 325 325 325 325 325 325 325 326 325 325 325 326 326 327 327 328 327 327 326 325 324 324 323 323
332 331 330 330 327 327 326 326 326 326 326 325 324 325 326 324 322 323 323 323 323 323 323 323 322 323 322 322 321 320 321 321
333 333 332 331 329 327 327 327 327 327 327 326 326 326 326 325 323 322 322 321 322 322 321 320 317 316 316 317 317 317 318 319
333 333 331 327 327 329 327 328 328 328 327 327 327 326 327 327 325 325 324 322 319 318 314 314 314 313 312 313 314 314 317 319
334 331 325 320 320 325 328 328 328 329 328 327 327 326 326 326 326 323 320 320 319 315 314 314 314 314 313 312 312 313 318 316
333 327 320 319 323 325 327 328 328 329 328 327 327 326 325 323 322 320 319 320 318 315 316 313 309 307 306 307 307 311 310 308
331 323 319 320 321 322 324 326 328 329 327 327 327 325 323 321 320 320 319 319 318 318 316 312 307 303 302 302 302 305 303 302
329 322 319 318 319 321 322 323 324 323 322 323 323 322 319 316 315 315 315 317 319 319 317 313 307 303 302 302 302 302 302 302
326 321 318 318 318 318 318 318 318 317 317 316 315 315 313 312 312 311 311 314 318 318 316 312 307 303 303 304 303 302 302 302
324 320 318 318 317 316 315 315 314 313 313 312 311 311 311 311 310 310 310 311 313 314 314 312 307 305 304 303 303 302 302 302
322 319 317 317 316 315 315 314 312 311 311 310 310 310 310 310 310 310 310 311 311 312 312 310 307 305 304 304 304 303 302 302
318 317 316 316 315 314 313 311 310 309 309 309 308 308 308 308 309 309 310 311 310 310 310 309 307 305 304 305 305 304 303 303
314 314 313 311 310 311 310 308 308 308 309 310 310 309 309 308 307 307 308 310 310 310 309 308 306 306 305 306 307 306 303 303
310 309 308 308 308 309 309 309 309 309 309 309 308 308 307 307 307 307 307 307 308 308 309 308 308 306 305 305 308 308 306 302
309 310 309 309 308 308 307 308 308 307 306 306 305 305 305 305 305 306 306 307 307 307 307 307 306 307 304 303 303 303 306 307
309 309 309 309 307 306 307 306 305 305 305 304 304 303 303 304 304 304 304 305 306 305 306 304 305 304 305 304 302 300 298 301
309 309 308 307 306 306 306 304 304 304 304 303 302 302 303 303 303 302 302 302 302 301 300 300 300 300 299 298 299 301 299 298
308 308 307 306 306 305 305 304 304 304 303 302 301 301 302 301 300 300 299 298 298 298 299 299 298 297 296 295 294 294 293 293
308 308 307 305 304 304 304 303 303 302 301 300 300 300 299 299 298 298 298 297 298 297 297 296 296 294 293 292 292 292 292 292

GFSFLT2_925_thetae_024.txt.gz
Theta_e
330 330 327 324 323 324 324 324 324 324 325 324 324 324 323 324 324 325 325 325 326 326 326 327 327 327 327 326 326 325 329 328
332 332 331 331 330 325 325 325 325 325 325 325 325 326 325 325 326 325 325 325 326 327 327 327 326 326 325 325 325 325 327 327
334 333 334 332 330 329 327 325 326 327 328 325 328 330 329 329 324 323 322 322 322 322 322 321 321 320 320 320 320 322 324 324
335 335 335 334 329 330 331 330 330 331 331 331 329 330 329 327 325 323 323 323 320 318 319 319 318 318 318 317 318 320 320 321
335 336 336 334 330 329 328 328 329 331 332 331 331 330 330 329 328 327 327 325 323 321 319 318 318 318 318 318 318 318 318 318
336 337 335 332 327 326 327 327 328 329 330 332 331 329 328 328 327 326 325 324 323 321 320 320 320 318 317 317 317 316 316 317
336 337 333 326 327 327 328 329 328 329 330 329 329 327 326 326 324 323 322 321 321 321 320 320 318 316 314 313 312 314 315 311
336 334 328 326 326 328 327 327 327 327 326 326 328 327 324 323 321 320 319 319 318 319 319 318 315 313 311 309 308 311 310 308
334 332 328 326 326 325 324 323 324 323 322 323 324 324 321 321 318 318 317 317 319 319 319 317 315 312 309 308 308 310 308 307
331 329 326 325 324 323 322 321 320 319 319 319 319 319 320 319 317 317 316 317 317 317 317 316 315 312 310 308 308 308 308 307
329 329 327 324 324 322 322 321 320 318 318 317 317 318 318 318 316 316 317 317 316 317 316 316 314 312 310 309 308 308 307 307
326 327 326 324 322 321 319 319 318 317 315 314 314 314 314 315 315 315 316 316 315 315 316 315 314 312 310 309 308 308 308 307
324 323 322 320 319 318 317 316 314 313 313 312 313 313 313 313 313 314 314 315 315 315 314 315 315 313 312 310 309 309 309 308
317 315 314 313 312 312 312 312 312 313 313 313 313 312 311 311 311 311 312 312 313 314 314 315 314 313 313 311 312 311 310 309
314 313 313 313 313 313 313 313 313 313 311 311 310 309 308 308 308 309 310 310 311 311 312 313 314 313 312 311 313 313 311 310
314 313 313 312 312 312 312 312 311 310 310 309 308 307 307 306 307 307 308 308 308 309 309 310 311 312 312 312 310 310 313 312
314 313 312 312 311 311 311 311 310 310 309 308 307 306 305 305 305 305 306 306 306 307 308 308 309 309 309 310 310 309 308 309
313 312 311 310 310 310 309 308 307 307 306 305 304 303 303 303 304 304 304 305 304 304 304 304 304 305 304 304 304 303 304 305
312 312 311 309 309 308 307 306 305 305 304 303 303 302 302 302 303 303 303 303 302 301 300 300 298 297 296 295 295 294 294 294
312 312 311 309 308 307 306 305 305 304 303 303 302 301 301 302 302 302 301 301 300 300 300 297 296 295 294 293 293 292 292 292

GFSFLT2_925_thetae_030.txt.gz
Theta_e
327 323 322 322 322 323 323 323 323 323 323 323 322 322 322 323 324 323 323 323 322 322 324 325 325 325 324 322 321 320 319 326
330 330 332 332 327 321 321 323 322 323 322 322 328 329 328 328 329 324 318 317 318 319 320 320 319 318 317 315 312 311 324 325
330 331 331 332 332 327 327 322 328 329 329 328 331 332 331 331 328 325 323 323 323 317 319 315 313 316 320 318 317 316 321 321
332 331 331 329 326 328 330 328 331 332 331 330 331 327 328 326 328 327 327 327 325 324 323 321 320 321 321 319 319 320 320 316
331 332 331 331 326 326 329 328 329 331 330 330 329 327 329 327 328 328 326 326 325 325 323 323 322 321 319 320 318 318 318 317
331 331 331 329 327 326 326 326 328 327 331 330 328 327 326 326 324 324 323 322 322 321 321 321 321 322 322 320 318 317 317 316
330 331 331 328 324 326 326 326 328 329 328 327 328 325 325 324 323 322 321 320 319 319 319 318 319 319 320 318 316 315 314 314
330 333 335 327 325 327 325 327 326 327 325 326 324 325 324 323 322 321 320 319 318 318 318 319 319 319 318 317 316 314 313 311
328 332 335 329 326 326 324 324 322 322 322 322 322 323 322 321 321 320 319 319 318 318 319 318 318 318 318 318 316 314 312 311
329 331 334 333 329 325 323 322 322 321 320 320 320 321 320 320 320 319 319 318 318 319 319 319 319 318 318 317 317 315 313 311
329 330 332 332 330 326 324 323 321 321 320 319 319 318 317 317 317 317 317 317 318 318 318 318 318 319 318 318 317 316 315 313
328 329 332 331 328 325 323 321 321 320 319 317 316 316 317 316 316 315 316 316 316 316 317 317 318 318 318 318 318 317 317 315
326 327 325 324 324 321 319 318 317 317 316 316 316 316 316 314 313 313 312 312 313 313 313 314 315 316 318 317 316 316 317 317
320 319 318 318 317 317 316 316 317 317 317 316 315 315 314 313 312 311 310 310 310 310 311 312 313 313 315 315 315 314 314 315
318 317 317 316 315 316 316 316 316 316 316 316 315 313 312 311 308 307 307 308 309 308 308 309 311 311 311 312 313 312 312 313
317 317 316 316 316 316 316 316 316 313 312 312 311 309 308 306 306 305 305 306 307 307 308 307 308 309 309 309 308 307 309 310
317 316 316 315 315 314 314 313 312 311 309 309 307 307 306 305 303 303 304 304 304 307 306 305 305 303 303 302 302 302 303 305
317 316 316 315 314 313 312 311 310 309 309 308 308 307 305 303 302 302 304 305 304 303 302 302 301 300 299 298 298 298 298 298
317 316 315 313 312 312 311 310 310 309 308 308 307 305 303 302 302 303 303 302 301 301 300 300 299 298 296 296 296 294 294 294
314 314 313 311 310 311 311 310 309 308 307 306 304 302 301 302 302 301 300 300 299 299 298 298 298 297 295 295 294 295 295 294

GFSFLT2_925_thetae_033.txt.gz
Theta_e
319 320 320 319 318 319 321 321 321 321 321 320 322 324 325 323 322 318 316 315 314 314 314 314 314 315 314 314 311 310 314 323
324 330 330 328 320 317 317 318 319 319 320 328 329 329 329 326 324 324 322 322 322 315 318 316 312 312 316 317 317 312 318 321
331 331 331 331 327 327 323 329 328 330 328 329 330 331 328 325 326 326 326 325 324 323 322 322 319 320 320 320 318 318 320 320
331 332 331 331 328 328 328 329 330 330 329 330 328 328 328 327 327 327 326 325 325 325 323 323 321 320 319 319 319 319 319 318
331 331 328 330 327 328 329 328 329 329 329 329 329 327 328 328 327 325 323 324 323 322 322 321 321 321 320 320 318 317 317 317
332 327 329 328 326 326 329 330 330 331 330 328 328 326 326 325 324 323 322 321 320 320 321 320 320 321 320 320 320 318 316 315
330 328 324 322 326 325 325 327 325 328 329 328 327 325 324 324 323 321 320 319 319 319 318 318 317 317 317 318 318 317 315 315
331 330 330 326 326 325 325 326 327 326 327 326 324 322 323 322 321 320 320 319 319 318 318 318 319 319 319 319 318 317 316 315
331 332 333 327 325 325 324 327 325 323 323 322 320 320 322 321 320 320 320 319 318 318 317 318 319 318 318 318 318 318 317 315
331 334 331 327 326 326 323 323 322 321 320 320 319 320 320 320 319 318 317 316 316 316 317 317 318 318 318 318 318 318 317 316
331 334 332 331 329 325 323 322 321 320 321 320 320 319 317 316 316 315 315 315 316 316 316 316 315 315 316 317 317 317 317 317
329 331 330 328 326 325 324 322 321 320 319 317 316 316 316 316 315 313 313 312 311 312 311 310 310 311 312 313 314 316 316 316
322 319 318 318 317 318 317 316 316 316 317 316 315 315 315 314 313 312 310 309 309 308 309 309 308 307 309 312 312 313 314 314
318 318 317 316 316 316 317 317 317 316 316 315 314 313 311 310 307 306 306 307 307 308 307 307 307 309 308 309 309 310 310 310
316 316 316 314 315 316 316 315 315 314 312 310 309 308 307 306 305 304 303 304 304 304 305 307 307 307 307 306 307 307 305 307
316 316 316 315 314 314 314 314 313 311 310 309 307 307 306 304 303 302 302 303 303 304 305 304 304 302 302 302 300 299 302 302
316 316 315 314 314 313 313 312 311 310 309 308 308 307 305 304 303 302 301 304 304 303 302 301 301 300 299 298 298 297 298 296
317 316 314 311 311 311 311 310 310 309 308 308 306 305 303 302 301 302 302 302 300 300 300 300 299 299 298 297 296 296 296 295
314 313 312 311 310 310 310 309 308 308 307 306 304 303 301 301 301 300 298 299 299 299 299 298 298 297 296 295 294 294 294 294
313 313 311 310 309 306 305 304 304 305 304 303 302 302 301 301 301 298 297 297 296 296 296 296 295 295 295 296 295 294 295 294

GFSFLT2_925_thetae_039.txt.gz
Theta_e
318 318 317 317 318 318 319 319 320 319 318 319 321 321 322 322 322 320 320 321 317 321 320 318 316 316 318 318 318 318 319 320
317 317 315 315 317 318 318 318 318 317 321 325 325 324 324 324 324 323 322 323 322 322 321 320 319 319 319 319 318 317 318 318
322 323 320 315 314 315 317 316 318 324 327 327 326 326 325 326 325 325 324 324 324 323 321 321 321 320 320 319 319 318 316 316
326 326 324 321 320 323 324 324 325 329 329 327 327 326 327 327 326 326 324 323 322 322 322 321 321 320 319 319 319 319 318 317
327 327 327 325 324 326 327 327 327 327 328 329 328 327 327 328 326 325 323 322 321 320 320 320 320 318 317 316 317 318 318 317
329 328 329 328 327 327 327 328 328 328 328 328 328 327 327 327 325 323 321 321 319 319 318 318 317 317 317 318 318 317 317 317
330 329 329 328 328 327 328 328 328 329 329 329 328 326 325 324 323 322 320 319 319 318 318 317 317 317 317 318 318 318 318 318
330 329 328 326 326 326 327 328 328 329 329 329 327 325 324 323 322 321 320 319 318 318 317 316 316 316 316 316 316 316 316 317
330 329 327 325 325 325 325 327 328 327 327 329 328 325 321 321 320 319 319 318 316 315 314 313 313 312 311 311 311 311 311 311
329 328 324 324 324 324 323 325 325 324 326 327 325 323 321 320 319 318 316 314 312 312 310 310 309 307 307 306 305 303 305 307
328 326 325 325 325 325 322 320 320 319 320 321 321 320 319 317 315 313 312 311 310 308 308 307 306 305 304 304 302 301 302 305
328 326 327 328 323 318 315 316 316 315 315 315 315 315 314 313 311 309 308 307 306 305 304 304 303 303 303 302 302 302 304 308
328 328 326 325 320 317 315 315 314 313 311 311 311 311 310 309 308 306 305 304 303 303 302 301 301 303 305 304 304 304 304 304
316 316 316 316 315 315 315 313 312 312 311 310 309 308 308 307 306 305 305 304 301 301 302 303 304 304 303 302 301 301 302 300
314 314 314 314 313 313 312 312 311 310 309 308 307 307 306 306 305 305 303 300 301 302 302 301 300 300 301 301 298 298 297 299
315 314 314 314 313 313 312 311 311 309 308 307 306 305 305 305 303 302 300 300 299 299 299 299 300 300 299 300 298 298 295 295
314 314 313 312 312 311 311 310 310 309 308 307 306 305 304 302 301 301 300 299 297 297 298 299 298 298 297 297 296 295 295 294
313 312 310 310 310 310 310 309 309 308 306 306 305 303 302 301 300 299 297 296 296 296 296 295 295 296 296 295 294 293 294 294
312 311 310 309 309 308 307 305 304 303 303 302 302 302 301 300 299 298 297 296 295 295 295 294 294 294 294 294 294 294 294 294
310 310 309 307 306 303 301 300 300 300 300 301 301 301 300 298 297 297 296 296 296 295 295 295 295 295 294 294 294 294 294 294

GFSFLT2_925_thetae_045.txt.gz
Theta_e
333 332 330 328 326 326 323 322 321 319 318 317 318 320 320 319 320 321 319 320 320 319 319 319 319 319 318 318 318 317 317 317
329 325 323 323 323 320 320 320 319 318 319 320 322 322 323 323 322 322 322 322 321 320 320 319 319 318 318 317 317 317 317 318
319 319 319 319 318 319 319 319 318 320 322 322 323 324 324 324 324 323 322 323 323 322 320 320 319 318 317 316 316 316 316 318
318 318 317 317 317 318 319 318 318 324 325 325 325 325 325 326 325 324 323 322 321 320 319 319 320 317 316 316 317 317 317 317
319 318 316 316 317 317 317 318 322 324 326 326 326 326 326 326 327 326 324 322 320 319 318 318 317 317 317 316 316 317 317 317
321 320 319 318 320 321 321 323 325 327 327 327 328 327 326 326 327 326 323 320 318 318 317 317 317 316 315 314 314 314 314 315
323 323 322 321 322 323 324 325 326 326 326 327 327 328 327 326 325 324 320 319 318 317 316 315 314 312 311 310 309 308 308 309
323 325 325 325 325 326 327 326 325 326 326 327 327 328 325 323 322 320 318 317 315 314 312 311 310 310 309 307 306 306 305 303
323 325 326 328 327 324 323 323 324 324 326 327 327 326 323 322 319 318 315 313 311 311 309 308 308 306 306 306 306 305 305 304
325 325 326 324 322 322 320 320 321 321 323 324 323 323 322 319 316 314 311 309 309 308 306 305 305 305 305 305 305 304 304 306
325 326 324 324 322 323 323 321 321 319 319 318 316 316 315 313 312 309 308 306 305 305 304 303 303 304 303 303 304 302 303 304
324 324 325 323 324 323 321 319 315 315 313 313 312 311 309 308 307 306 305 305 304 303 301 301 302 302 300 301 301 300 304 302
325 325 323 326 323 320 312 311 311 311 310 309 309 308 308 307 306 306 305 303 301 300 301 301 301 301 300 299 300 304 304 300
325 326 325 324 320 314 313 311 310 309 309 308 307 306 306 306 306 305 303 302 300 299 300 299 299 300 300 299 300 300 301 301
322 320 320 318 315 313 312 310 309 308 308 308 307 306 306 306 305 303 301 300 300 298 298 299 298 299 299 299 300 300 299 298
314 314 313 313 313 312 311 311 311 309 308 307 306 306 306 304 302 301 300 298 296 297 297 298 298 298 298 298 298 298 297 297
312 312 312 312 311 311 310 309 309 308 307 307 306 305 303 302 301 300 299 297 295 295 297 296 296 296 296 296 294 295 295 295
312 312 312 311 311 310 309 308 306 305 303 303 301 300 300 300 300 299 299 297 296 296 295 295 296 296 295 295 295 295 294 294
311 310 309 309 308 307 304 301 300 299 299 299 299 299 298 299 299 299 298 297 296 296 295 295 296 295 296 295 295 294 294 294
309 309 308 305 303 302 301 300 300 299 299 298 298 298 298 298 299 299 297 297 296 296 296 296 295 295 295 294 294 293 293 293

GFSFLT2_925_thetae_048.txt.gz
Theta_e
339 339 337 334 332 331 328 326 325 323 318 317 317 317 318 320 320 318 320 320 319 319 319 319 319 318 317 316 316 316 319 318
336 335 334 334 333 327 324 324 322 319 318 319 321 321 321 321 322 322 322 321 321 320 320 319 319 318 316 315 316 319 319 318
333 331 331 331 329 328 324 321 320 319 322 322 324 328 328 328 325 322 322 322 322 321 320 319 319 319 316 315 318 319 319 319
327 327 327 326 324 327 327 325 324 328 328 329 329 330 330 329 327 324 323 322 321 320 319 318 320 320 320 319 319 319 319 319
325 326 326 325 325 325 324 324 326 329 330 331 331 330 331 330 330 329 328 324 324 321 322 321 322 321 320 320 318 317 317 317
325 325 325 326 325 325 326 327 329 329 330 331 331 330 331 330 329 329 328 324 323 322 321 322 321 319 317 317 316 315 314 314
326 326 325 326 327 328 329 329 330 330 330 331 331 332 331 330 329 327 325 323 322 321 320 319 318 316 315 314 313 313 312 312
328 328 328 328 328 329 329 329 329 330 331 331 330 328 327 325 325 324 322 320 319 317 317 316 315 314 313 313 312 312 311 311
328 329 330 329 327 325 324 322 323 324 324 325 325 326 324 323 323 320 317 316 315 315 314 313 312 311 311 311 311 311 310 309
328 328 328 326 325 324 322 320 320 322 320 321 321 321 320 318 317 314 313 312 312 311 311 310 310 310 309 309 308 308 308 306
328 328 326 322 321 319 320 319 321 318 316 315 315 314 313 312 313 312 310 310 310 309 309 308 307 306 306 303 303 304 302 303
329 328 323 323 323 320 317 320 317 314 313 313 312 312 312 311 311 310 310 310 309 307 306 305 304 303 303 301 303 302 302 304
329 326 325 324 322 322 318 316 314 313 312 312 311 311 310 311 310 310 309 308 306 305 303 302 301 301 302 301 301 302 305 305
329 327 326 326 324 320 317 316 313 313 311 311 310 310 310 309 309 308 306 304 303 302 301 301 300 300 302 301 302 301 301 303
327 327 326 323 319 317 316 314 313 312 312 311 309 309 309 309 307 305 304 302 301 301 300 300 300 299 300 300 302 302 300 299
322 322 321 319 317 316 314 314 314 313 312 311 310 309 308 306 304 303 302 301 301 300 298 299 299 298 298 298 299 298 299 299
317 316 316 315 315 315 315 314 313 312 311 309 308 307 305 303 302 302 302 301 300 300 299 299 298 298 297 297 297 297 296 296
316 315 314 314 314 314 313 312 309 307 306 305 304 303 302 302 302 302 301 301 300 300 299 298 298 297 297 297 296 296 295 295
316 315 314 313 312 310 308 306 305 304 304 303 302 301 301 301 301 301 301 300 300 299 298 297 297 297 296 296 295 295 294 294
315 314 312 310 308 306 305 304 304 304 303 302 302 301 301 301 301 301 301 300 300 299 298 297 297 296 296 295 294 293 293 293

GFSFLT2_925_thetae_051.txt.gz
Theta_e
340 339 336 336 335 333 330 327 326 323 319 318 317 316 319 320 317 320 319 319 319 319 318 318 317 316 314 314 318 320 321 320
339 338 337 336 335 330 328 325 323 320 318 319 320 320 320 322 324 322 321 321 320 319 318 318 317 316 315 314 319 320 321 320
333 332 332 332 333 328 324 323 320 319 320 322 327 328 329 329 326 322 322 322 322 320 319 318 317 322 320 318 320 320 319 320
331 331 330 328 325 327 327 324 324 327 328 328 330 330 331 330 327 324 324 323 322 320 319 318 322 322 321 321 320 320 319 319
327 328 327 324 325 325 325 324 328 330 332 332 331 330 331 331 329 331 330 327 325 323 323 322 323 322 321 320 320 319 318 318
326 326 326 326 324 323 324 325 328 329 331 333 333 332 332 331 329 328 328 326 324 323 322 324 323 321 320 319 318 317 317 316
327 326 327 329 328 329 330 330 331 331 332 331 329 329 328 328 329 328 326 325 324 323 322 321 320 320 318 318 317 316 316 316
328 328 328 330 332 332 331 330 329 329 329 331 332 331 331 329 327 326 325 322 321 320 319 318 318 317 316 316 315 315 315 314
330 329 331 331 330 328 326 325 324 323 323 326 328 329 327 327 325 323 320 318 317 316 316 315 315 315 314 314 313 313 312 311
331 331 331 329 326 325 325 322 320 319 320 319 321 320 320 321 319 317 315 313 313 313 313 313 312 311 310 310 309 307 306 307
331 332 329 325 322 320 321 322 317 319 318 315 314 314 313 315 315 314 313 312 312 312 310 309 308 307 306 305 305 304 305 305
332 331 325 323 321 322 321 320 317 319 316 314 314 314 314 313 313 313 312 311 311 309 308 306 305 304 303 304 304 304 303 304
331 328 327 327 326 325 322 321 318 315 314 314 314 313 313 313 312 312 311 309 308 307 305 303 303 302 302 302 303 302 303 305
330 329 328 328 325 325 323 319 316 315 314 314 313 313 312 311 312 310 309 307 305 304 303 303 302 301 301 301 303 301 301 303
331 328 327 325 322 320 319 317 316 314 315 314 313 312 311 311 309 308 306 304 303 303 302 301 301 300 300 300 301 301 300 299
325 324 324 321 319 317 317 315 316 316 315 314 313 312 310 308 306 304 304 303 303 302 301 301 300 300 299 298 298 298 300 300
323 322 320 319 318 317 317 317 316 315 314 312 310 309 307 306 304 303 304 303 302 302 301 301 300 299 299 298 298 298 298 298
319 318 318 317 317 317 317 316 314 312 310 308 307 305 304 303 303 303 303 302 302 301 301 300 299 299 298 298 298 297 297 297
319 318 317 317 317 315 313 311 309 308 308 307 305 303 303 303 302 302 301 301 301 301 301 300 299 298 298 298 297 296 296 295
319 318 317 316 314 311 309 308 308 307 306 304 304 303 303 303 302 301 300 300 300 300 300 300 299 298 298 297 296 296 295 294

GFSFLT2_925_thetae_054.txt.gz
Theta_e
337 335 335 333 334 333 330 328 327 321 317 316 316 317 319 316 319 318 317 317 317 317 316 315 315 314 314 314 319 320 320 321
338 336 335 335 333 330 328 326 322 317 316 318 319 320 322 324 321 321 321 321 319 318 316 315 315 319 320 319 319 321 320 320
336 336 334 332 329 327 326 322 318 317 320 323 326 328 327 328 326 321 321 319 319 318 317 316 317 320 322 320 320 320 318 320
335 333 333 332 329 325 323 317 323 324 324 329 331 331 329 330 326 324 326 326 323 323 323 322 323 323 323 321 321 320 319 318
331 330 328 326 325 328 324 325 329 330 331 331 330 330 331 330 330 329 329 328 327 324 323 324 324 323 322 320 319 318 318 317
328 327 325 325 325 326 323 327 330 330 332 331 331 330 328 326 328 328 328 326 324 324 324 323 322 321 320 319 318 317 317 317
327 326 326 323 326 326 330 331 330 330 329 329 329 328 327 327 325 326 324 325 323 322 321 320 319 318 317 317 316 315 315 315
326 327 329 329 331 330 329 327 327 327 326 326 327 327 329 329 327 326 323 321 320 319 317 316 315 315 315 314 314 313 313 311
328 329 331 331 330 328 326 325 321 320 321 325 325 326 325 325 325 322 318 317 315 313 313 313 312 311 310 309 309 309 307 305
329 330 331 329 327 325 323 319 319 320 319 318 318 317 319 319 316 313 312 313 313 313 311 310 308 307 307 306 306 305 305 304
332 331 329 327 326 325 320 322 319 319 319 316 311 311 313 314 314 314 313 312 312 310 309 307 306 305 304 303 304 303 305 304
333 330 326 325 323 321 322 322 319 318 314 312 315 315 314 314 314 313 312 311 310 309 307 305 304 303 303 303 302 303 302 302
332 329 325 323 321 323 322 321 320 316 315 315 314 314 314 313 313 312 311 309 307 306 305 304 303 302 301 301 301 300 301 300
329 329 326 326 327 327 324 321 318 315 315 315 315 314 313 312 312 310 308 307 304 304 303 303 302 301 301 301 300 300 300 300
330 330 328 328 327 323 322 319 317 315 315 315 314 313 312 310 308 307 305 304 304 303 303 302 302 301 301 300 299 299 299 300
330 330 329 326 321 320 319 317 316 316 316 315 314 313 311 309 307 305 305 304 304 303 303 302 301 302 301 300 299 299 298 298
329 325 324 321 319 318 317 318 317 316 315 313 311 310 309 307 306 305 304 304 303 303 303 303 301 300 300 299 299 298 298 298
324 322 320 319 319 318 318 317 315 312 310 309 308 307 305 304 304 304 303 302 302 302 302 301 301 300 300 299 299 298 298 297
320 319 319 318 318 318 317 313 310 309 309 308 306 305 304 304 303 303 302 301 301 301 301 301 300 300 299 299 298 298 297 296
320 319 318 318 317 314 311 309 308 308 306 306 305 304 304 303 302 300 300 299 299 299 299 300 300 300 299 298 297 297 296 295

GFSFLT2_925_thetae_057.txt.gz
Theta_e
333 332 333 333 333 330 326 324 321 317 316 315 316 317 316 318 317 316 315 315 315 314 313 313 314 319 320 318 320 320 320 320
333 334 333 333 331 327 325 321 317 315 315 318 319 320 321 319 318 318 317 317 317 316 315 315 317 320 321 320 321 320 319 320
333 334 334 332 329 325 322 319 315 319 320 322 325 327 326 324 320 321 321 321 319 321 321 320 321 323 322 321 320 320 318 318
332 333 332 329 324 321 319 315 318 322 327 329 329 329 329 328 325 325 326 325 325 323 323 323 324 322 322 320 320 319 318 317
333 333 331 322 322 319 321 326 328 327 330 331 330 329 328 328 329 329 328 328 326 325 325 324 323 321 320 319 318 318 317 317
333 329 328 324 323 323 326 328 329 330 332 330 331 330 328 327 325 326 325 323 321 320 321 321 320 318 317 316 316 316 315 315
327 325 324 326 327 326 328 331 331 331 330 329 328 327 327 327 326 326 324 323 322 321 320 318 315 315 315 313 311 310 311 309
325 324 323 327 330 330 329 329 329 328 327 326 327 327 327 327 326 324 323 319 317 316 313 313 312 311 311 310 308 307 306 306
325 324 330 330 329 329 328 328 326 321 322 322 324 325 326 325 323 317 312 312 313 312 312 311 310 308 306 305 305 304 304 304
328 330 332 329 329 327 327 323 320 319 319 318 318 319 317 313 312 310 312 313 312 312 311 308 305 304 303 303 302 302 302 303
329 331 329 328 328 327 324 319 319 318 317 313 311 312 314 313 313 312 312 311 311 310 308 305 303 303 302 302 301 301 301 301
331 330 328 327 327 323 320 321 318 317 312 311 314 314 314 314 313 313 311 309 307 306 305 304 303 302 301 300 300 300 300 299
330 329 327 326 325 322 322 322 319 315 313 314 314 314 313 313 311 310 309 307 305 304 303 303 302 301 300 300 300 300 299 299
330 328 326 326 323 322 323 321 319 315 315 314 314 314 312 312 311 309 308 305 304 303 303 303 302 301 300 300 297 299 299 298
328 327 326 324 325 326 324 321 316 315 315 314 314 313 312 310 308 307 305 304 304 303 303 303 302 301 301 300 297 296 297 298
329 328 326 326 328 327 320 318 316 315 315 314 313 313 311 310 307 305 304 304 304 304 303 302 302 302 301 300 300 298 296 296
329 326 326 328 325 322 320 316 316 316 315 314 313 311 309 306 305 305 304 304 303 302 302 302 302 301 301 300 299 299 298 296
328 329 327 319 319 319 318 317 315 312 310 309 308 305 304 304 304 303 302 302 301 301 300 301 301 301 300 300 299 298 298 297
326 321 319 319 318 317 315 312 310 309 308 307 306 305 304 303 303 302 301 300 300 299 298 298 299 300 299 299 299 298 298 297
320 319 318 318 317 315 312 310 308 308 307 306 305 304 303 302 300 299 298 297 296 296 296 296 297 300 299 298 297 297 297 296

GFSFLT2_925_thetae_063.txt.gz
Theta_e
329 330 331 331 331 325 320 320 317 315 315 312 314 315 314 314 314 314 314 314 314 315 320 322 322 321 320 319 318 319 317 316
331 331 330 331 327 322 320 317 315 316 313 314 317 316 316 316 317 317 317 318 317 318 322 322 321 321 319 319 318 318 317 316
325 326 328 330 325 323 319 316 317 315 316 316 318 319 319 320 320 320 320 320 320 321 323 322 321 320 318 318 317 316 316 315
324 327 330 329 325 321 317 316 315 318 320 319 321 322 323 323 324 324 324 323 323 323 323 321 320 319 318 317 315 314 313 312
324 325 326 329 324 321 317 317 318 321 323 326 326 328 327 328 328 327 327 325 324 322 321 319 317 316 315 314 311 310 308 306
323 326 330 328 322 319 317 319 320 324 326 328 328 327 328 327 327 325 325 322 320 319 318 316 314 312 312 310 308 306 305 305
327 326 330 325 322 319 319 323 325 329 330 329 329 328 327 325 323 322 321 319 318 317 315 312 310 309 307 305 304 303 303 302
329 329 328 321 319 320 323 325 328 330 329 329 328 327 325 324 322 320 318 317 313 311 310 308 304 303 302 302 302 301 301 300
330 329 324 322 321 325 326 328 330 330 328 328 327 326 325 323 321 316 313 312 311 310 309 305 303 301 300 300 300 300 299 300
330 331 325 325 324 325 327 329 330 329 326 325 326 325 323 317 313 312 312 311 310 309 306 303 302 301 300 300 299 299 299 299
328 330 326 327 326 328 329 328 325 323 323 323 322 319 312 311 311 311 311 310 309 307 304 303 302 301 300 300 299 298 298 298
325 326 326 327 328 326 324 321 319 319 319 319 314 312 313 312 311 311 310 310 308 304 303 302 301 301 300 301 299 298 298 298
326 326 327 327 324 321 319 318 317 316 314 313 313 313 313 312 311 310 310 309 305 303 302 302 301 301 300 300 299 298 298 298
327 328 327 326 325 322 320 319 317 314 312 313 313 313 313 312 311 309 308 305 303 303 303 302 302 301 301 298 296 298 298 299
325 328 327 326 325 322 321 319 317 312 314 313 313 313 312 311 310 307 306 304 303 303 303 302 302 301 301 300 297 296 296 298
325 327 327 326 325 321 321 321 316 313 314 314 313 312 312 311 308 306 304 303 303 303 302 301 301 301 300 300 300 299 295 294
326 326 326 326 324 323 322 320 318 315 314 313 313 311 309 308 306 304 304 303 301 301 300 299 299 299 300 300 300 299 297 294
326 325 327 326 325 322 323 321 317 314 314 313 312 310 309 307 305 303 303 304 300 298 297 296 296 296 296 297 299 298 297 295
325 327 326 326 324 322 325 325 317 314 314 312 309 305 304 303 303 306 305 298 297 296 295 295 295 295 295 297 298 299 298 297
326 326 327 326 324 324 326 324 316 315 313 309 304 305 304 304 307 304 297 297 296 295 295 295 295 295 296 296 296 296 296 296

GFSFLT2_925_thetae_066.txt.gz
Theta_e
332 332 332 330 329 325 328 323 314 318 316 314 315 315 314 314 314 313 314 314 319 321 322 320 320 319 318 318 318 317 316 316
332 331 330 328 327 327 324 316 316 317 314 316 316 316 316 316 316 316 316 317 320 321 321 320 319 319 318 318 317 316 316 315
331 329 327 325 325 326 319 314 316 314 316 316 316 317 318 319 319 319 320 320 321 322 321 319 319 318 317 316 316 315 315 315
328 325 320 324 327 323 318 317 315 316 318 318 319 320 321 322 322 322 322 322 322 321 320 318 317 316 314 314 312 311 310 310
323 325 326 327 325 320 317 316 319 317 319 321 323 324 326 326 325 326 325 323 321 320 319 317 316 313 311 309 308 307 306 306
320 321 324 329 324 319 317 317 320 323 325 325 327 327 328 327 327 326 323 321 319 318 317 314 313 312 309 308 306 305 304 304
319 318 321 329 324 319 318 319 321 324 327 328 327 328 326 325 324 322 320 318 318 315 313 311 308 306 304 303 302 301 300 300
320 324 327 328 323 319 319 321 324 327 329 328 328 328 326 323 320 319 317 316 313 310 307 305 302 301 300 300 299 299 299 299
325 327 328 327 322 318 320 324 329 330 329 329 327 325 324 322 320 318 314 311 310 309 305 302 301 300 300 299 299 298 298 299
328 329 330 324 320 320 325 327 329 329 328 327 326 324 323 321 318 313 311 310 309 307 304 301 300 300 299 300 299 298 298 298
327 328 328 323 321 324 326 329 329 328 326 326 325 323 320 317 312 311 310 310 308 305 302 301 300 300 300 301 299 298 298 298
325 328 328 325 324 326 327 328 326 324 324 324 323 319 313 311 311 310 310 309 308 303 302 301 301 301 300 301 299 298 298 298
326 328 328 326 326 326 325 323 322 321 320 319 315 312 311 311 311 310 309 308 305 302 302 301 301 301 300 300 298 298 298 298
325 326 326 326 326 326 324 320 318 318 318 314 312 313 312 312 311 310 308 305 303 302 302 302 301 301 300 298 296 298 298 298
326 325 325 325 325 323 320 317 317 313 313 313 313 313 313 311 310 308 306 303 303 303 303 302 302 301 300 300 296 296 295 298
325 325 326 325 325 322 321 318 315 313 312 313 313 312 311 310 308 306 304 303 303 303 302 301 300 300 300 300 299 298 295 295
324 324 325 325 324 322 321 319 318 315 313 313 313 312 310 309 307 305 304 303 302 301 300 299 297 297 298 298 299 299 297 294
324 324 324 325 324 322 321 321 319 316 313 313 312 310 309 308 306 305 303 303 302 299 297 295 295 295 295 295 296 297 297 295
324 324 324 325 324 322 322 321 319 317 314 313 311 310 308 306 305 302 306 304 298 297 295 295 294 295 295 296 297 297 297 297
325 325 324 325 325 324 323 321 320 316 314 313 311 310 306 304 303 307 304 297 297 296 295 294 294 295 295 294 293 293 292 294

GFSFLT2_925_thetae_069.txt.gz
Theta_e
332 331 332 330 326 325 322 317 319 317 310 313 315 314 314 315 315 316 319 320 320 319 319 318 317 317 318 317 316 316 320 320
334 333 329 325 324 327 325 322 319 311 314 315 315 314 314 314 315 317 320 321 321 320 319 319 318 318 318 317 316 316 318 319
331 329 327 324 323 322 322 320 313 313 315 315 315 316 316 316 317 318 321 321 320 319 319 319 318 317 317 316 316 316 316 316
326 324 322 320 318 318 319 317 313 316 315 316 317 317 317 319 320 321 321 321 320 319 318 317 317 315 314 314 312 311 311 309
325 323 320 317 320 322 320 318 316 317 317 318 319 321 321 321 322 323 321 320 317 316 315 314 313 312 310 309 308 307 306 305
320 320 318 318 324 320 319 318 317 319 319 322 323 324 325 325 325 324 321 319 318 316 314 312 311 309 307 305 303 302 302 302
323 323 323 327 323 319 317 319 317 319 323 325 326 327 327 327 323 320 318 318 317 315 312 309 305 303 301 300 299 299 299 299
322 319 321 326 324 320 317 319 322 324 326 327 327 327 326 323 320 319 317 316 313 310 306 303 301 300 299 299 299 298 298 299
319 321 324 328 325 319 318 319 322 325 326 328 327 325 322 321 318 316 314 311 309 307 304 301 300 299 299 299 299 298 299 298
320 323 326 328 324 318 319 322 326 328 328 327 326 324 322 320 318 314 311 309 308 305 302 300 299 301 300 299 299 299 298 297
325 327 327 328 323 318 320 324 328 328 327 327 326 323 321 320 317 312 310 309 307 303 301 300 302 302 301 301 299 299 299 299
326 327 329 327 321 321 325 328 328 327 326 326 324 323 321 316 312 310 309 308 306 302 302 301 301 302 301 301 300 299 298 299
324 326 328 325 322 324 325 326 326 325 324 324 323 320 315 312 310 310 309 308 303 302 302 302 302 301 302 302 300 299 299 299
324 325 327 325 323 323 324 325 323 323 321 321 318 314 311 311 310 309 308 306 303 303 303 303 302 301 303 301 302 300 299 299
326 326 327 327 324 324 324 322 320 318 317 314 312 312 312 311 310 309 307 304 303 303 303 303 303 301 301 301 300 299 299 299
326 325 325 325 325 324 324 320 317 315 315 314 312 312 312 311 310 308 306 304 303 303 303 302 301 302 301 300 300 300 299 298
325 325 324 324 324 324 322 319 317 316 314 313 313 313 312 310 309 307 305 303 303 303 301 300 298 299 298 298 298 298 298 298
324 324 324 324 324 323 321 320 319 316 313 312 312 311 310 310 309 305 304 303 303 301 298 296 295 295 297 297 297 297 297 298
323 324 323 323 324 323 321 321 321 318 315 312 311 311 310 308 305 304 303 307 305 299 296 295 294 295 296 296 297 297 296 295
324 324 324 322 322 322 322 322 321 320 317 314 313 311 309 306 304 303 306 309 300 296 296 295 294 294 295 295 296 295 295 294

GFSFLT2_925_thetae_072.txt.gz
Theta_e
336 333 335 334 333 330 325 320 320 316 316 318 317 319 317 316 317 318 319 319 319 321 322 318 315 317 317 317 317 319 321 321
334 333 332 329 326 327 326 324 321 316 315 315 316 315 315 316 318 319 319 319 319 319 318 316 317 318 317 317 317 319 320 318
333 332 327 323 323 326 326 323 317 317 316 314 316 319 320 321 321 321 321 320 319 319 318 318 318 317 317 316 317 318 318 316
330 326 323 322 323 323 325 320 322 321 320 321 321 322 322 323 322 321 321 320 319 318 318 318 317 317 314 314 315 314 312 311
326 324 322 320 318 318 318 323 322 323 322 321 323 324 324 325 323 322 320 319 316 316 316 316 315 315 314 312 311 309 308 307
323 322 320 320 318 316 313 322 324 323 323 324 326 325 327 327 325 322 319 318 317 316 315 314 312 311 309 307 306 305 305 304
321 321 321 321 319 322 321 317 318 323 325 327 327 328 329 327 324 320 319 317 318 316 314 312 309 307 306 305 304 304 304 305
317 317 314 313 314 318 321 320 320 324 327 330 331 330 328 324 321 321 318 318 316 314 311 308 306 306 305 304 303 303 303 304
319 320 322 323 324 323 322 323 324 326 329 330 327 327 325 323 322 320 317 314 312 309 308 307 305 304 304 303 303 303 303 302
323 322 326 326 325 322 322 324 327 329 330 330 327 325 323 322 320 317 314 312 310 309 307 306 306 305 305 304 303 303 302 302
321 323 328 328 327 323 323 326 329 330 329 330 328 325 322 321 319 316 313 311 311 308 307 307 307 306 305 305 304 303 302 301
322 326 326 329 328 326 326 328 329 329 329 328 325 323 321 320 318 316 313 312 309 308 308 307 307 307 305 305 305 303 302 302
326 329 330 330 327 324 325 327 328 326 326 325 323 320 320 319 317 314 312 311 309 309 309 309 308 307 307 308 306 304 303 302
327 329 330 329 325 324 326 328 326 327 326 322 320 319 318 316 315 313 312 311 309 309 309 309 308 306 307 306 307 305 303 302
327 328 329 329 328 324 327 327 325 325 324 319 317 318 315 315 314 313 312 310 309 309 309 309 309 307 305 304 304 304 301 301
326 327 329 330 329 327 325 325 326 325 322 318 315 313 314 314 313 312 311 309 309 308 309 308 307 307 305 303 301 300 300 300
329 329 330 330 329 328 327 327 326 321 318 316 314 314 314 313 312 312 310 309 308 307 307 306 305 303 301 300 300 300 300 300
329 329 329 328 328 328 327 327 323 319 317 316 315 315 315 313 312 311 310 308 307 307 304 302 301 300 299 299 298 298 299 299
329 329 328 328 327 327 326 326 324 320 318 316 317 315 314 313 312 310 308 306 307 307 304 301 300 300 299 298 298 298 298 297
328 329 329 328 328 327 325 325 324 322 319 318 317 316 315 313 311 309 307 305 308 306 300 300 300 299 299 298 298 298 297 297

GFSFLT2_925_thetae_075.txt.gz
Theta_e
336 333 333 336 335 330 327 323 321 321 317 316 316 318 319 321 321 323 323 323 325 328 326 316 317 317 317 317 319 321 321 320
333 332 331 333 329 327 330 328 327 325 321 318 316 317 318 319 319 319 320 323 326 325 318 315 317 317 317 318 320 320 319 318
334 333 333 326 324 327 328 327 327 322 320 318 316 316 318 323 320 319 319 319 319 317 316 318 318 317 318 317 317 317 315 315
332 326 321 320 323 324 325 324 324 322 319 319 319 318 324 324 321 321 319 319 318 318 318 318 319 318 317 317 316 314 312 311
327 320 318 317 318 317 321 323 323 321 320 320 321 325 323 323 322 322 320 319 318 318 318 319 319 319 318 314 311 310 309 308
323 321 322 323 324 323 324 323 323 322 322 323 326 325 325 324 324 323 322 321 320 320 319 318 317 314 311 309 308 308 307 307
322 320 319 318 317 314 315 316 318 318 324 325 325 325 327 326 326 324 323 322 321 320 319 317 312 310 309 308 307 307 307 308
322 321 318 318 317 316 315 318 324 324 325 327 328 327 327 327 326 324 322 322 321 320 317 312 310 309 308 307 306 306 306 306
320 319 319 320 318 315 313 320 324 323 322 329 330 328 329 326 325 323 323 321 318 315 311 310 309 308 308 307 306 306 305 305
318 318 317 316 315 316 318 322 323 326 328 328 331 329 328 327 326 323 320 318 316 312 311 310 310 310 309 308 307 306 305 304
319 317 317 320 324 323 322 324 324 325 327 328 329 328 327 326 324 322 319 316 314 312 311 312 311 310 309 309 308 307 306 303
323 323 323 324 326 323 323 325 326 328 329 328 329 328 327 325 323 321 318 315 313 312 312 311 312 311 311 310 310 308 306 305
322 324 324 326 328 326 324 324 328 329 329 330 329 327 326 324 322 320 317 315 313 313 313 313 312 311 311 312 310 309 307 306
323 326 328 329 327 324 322 324 328 329 329 328 326 324 323 324 322 319 316 314 313 313 313 313 313 311 311 310 311 309 307 306
325 327 329 330 326 323 324 325 327 328 327 327 325 323 323 322 320 318 315 314 313 313 313 313 313 312 310 309 309 309 305 304
328 328 330 330 330 325 325 328 328 327 327 326 321 320 319 320 319 316 316 314 313 313 313 313 311 311 309 307 306 305 306 305
327 328 328 329 330 330 327 327 326 327 326 323 319 320 318 318 317 316 316 313 313 312 311 311 309 307 305 304 304 303 302 303
329 328 328 329 331 331 329 328 327 327 325 320 318 318 316 317 316 315 315 313 312 311 310 309 306 304 304 303 302 301 301 302
330 330 330 330 332 331 331 330 329 326 324 322 320 318 317 317 316 315 314 312 310 308 310 309 305 304 303 302 300 300 301 301
331 331 330 330 330 330 330 330 329 327 324 323 321 319 319 318 315 314 313 311 307 309 310 305 303 302 303 301 300 300 300 300

GFSFLT2_925_thetae_078.txt.gz
Theta_e
341 339 338 338 336 335 330 326 324 321 319 318 321 323 325 325 322 327 331 328 328 325 317 316 317 318 318 319 320 320 320 321
336 337 337 336 335 332 329 327 325 320 319 319 321 322 322 323 322 323 324 326 327 324 315 317 318 318 319 319 318 318 317 319
325 329 334 332 331 329 328 326 324 322 322 321 321 320 320 320 322 323 323 325 324 317 316 318 318 318 317 317 316 315 314 315
330 330 330 328 327 326 326 326 325 323 321 319 321 322 321 319 319 319 319 320 318 316 319 319 319 318 317 316 313 312 311 310
330 329 324 326 327 326 326 325 324 321 318 320 324 325 323 319 319 319 319 318 318 319 319 319 319 319 318 312 310 309 309 309
326 323 322 322 320 315 313 315 318 316 320 320 324 324 321 321 322 319 319 319 319 319 320 319 318 316 310 309 308 308 307 310
321 319 318 316 316 317 320 320 314 323 323 323 325 323 321 323 324 322 322 321 321 320 320 317 313 310 309 308 307 307 307 311
322 320 319 317 319 322 322 321 321 322 324 323 324 326 325 326 324 324 323 322 321 320 319 315 311 310 308 307 306 307 306 306
318 317 316 317 317 318 318 318 318 318 320 322 326 326 326 326 325 323 322 322 322 319 315 311 310 309 308 307 307 306 306 305
318 316 315 316 315 316 316 317 316 317 315 320 319 324 327 327 324 323 324 321 319 316 311 311 310 310 310 308 307 306 306 305
318 317 316 316 316 315 314 313 318 320 320 319 322 325 328 326 326 324 321 320 316 313 312 311 311 310 310 309 309 308 307 305
317 317 317 316 315 313 316 321 322 321 321 323 324 328 328 326 325 322 320 317 314 312 312 312 312 312 312 311 309 309 307 306
318 317 317 316 320 322 323 323 324 321 318 323 325 328 328 326 324 322 319 316 314 313 312 312 312 312 311 312 312 311 308 306
321 321 320 322 323 325 324 325 324 322 324 326 327 327 327 326 324 322 319 316 314 313 313 314 314 312 312 311 310 310 308 307
325 325 324 326 325 327 324 325 325 326 326 327 328 327 326 325 324 321 318 316 313 313 313 314 314 312 311 310 309 308 306 306
324 324 327 329 328 326 324 325 327 328 327 327 327 325 323 324 323 320 317 315 314 313 314 314 313 312 311 310 308 306 304 303
324 325 328 329 329 328 323 326 327 327 328 327 325 323 323 324 321 319 316 316 314 314 314 313 312 311 308 306 305 305 305 304
326 328 330 330 330 328 327 328 327 328 328 326 324 321 321 321 320 318 316 315 314 313 312 311 310 308 306 305 304 303 302 302
329 329 329 330 330 331 329 329 327 328 327 325 322 320 319 320 318 317 316 315 314 312 311 310 308 307 305 304 303 301 301 301
329 329 329 329 332 332 329 331 329 329 328 325 322 321 320 319 317 316 315 315 312 311 309 308 306 304 303 303 302 301 301 301

GFSFLT2_925_thetae_084.txt.gz
Theta_e
331 326 330 332 337 333 329 325 320 319 322 325 333 334 333 332 328 318 316 317 317 317 317 317 319 316 321 323 321 318 317 318
325 325 321 332 335 332 327 322 320 319 319 323 331 333 333 332 327 320 316 316 317 318 318 318 318 315 316 322 319 314 312 315
326 326 325 330 333 329 325 323 320 321 324 327 331 333 333 332 327 322 318 316 317 318 318 318 317 314 312 315 313 311 309 310
332 332 334 333 332 330 330 326 324 326 330 331 332 333 332 331 327 325 320 316 317 318 319 317 316 315 312 310 310 308 307 306
331 330 329 331 330 330 329 325 325 327 329 327 329 331 330 328 327 325 321 316 318 319 318 318 317 314 310 309 309 308 307 307
330 329 325 327 326 328 326 325 324 325 325 324 323 324 326 326 326 324 317 316 319 319 318 318 317 312 310 308 307 308 309 308
328 328 328 327 325 323 323 323 321 321 321 321 322 321 324 325 324 320 316 319 319 319 319 317 314 310 308 307 307 308 309 309
327 328 327 327 326 323 321 321 322 321 321 319 318 317 319 319 319 317 318 319 319 319 319 316 312 309 307 307 307 306 306 307
322 323 324 324 323 320 317 316 315 314 323 323 319 318 318 319 318 319 319 319 320 320 318 312 310 309 307 306 306 306 305 305
320 319 319 321 320 315 313 321 324 322 323 324 320 320 320 320 320 320 320 320 320 319 316 311 310 308 307 307 306 306 305 304
318 318 317 316 316 316 318 322 323 322 321 320 323 323 324 323 321 322 322 321 320 319 315 311 309 308 308 307 306 306 305 305
317 316 317 316 319 316 317 316 320 318 316 316 321 318 323 325 324 323 322 321 321 318 312 310 310 310 309 308 307 307 306 305
317 317 319 318 317 314 317 319 317 317 318 317 321 320 322 324 324 323 322 322 320 316 313 311 310 310 311 310 309 308 307 305
317 317 317 316 315 315 316 315 315 315 315 317 319 318 319 322 324 324 322 321 318 316 312 311 312 311 311 310 307 309 309 307
317 316 316 315 315 315 315 315 315 316 316 317 317 317 318 321 323 324 324 321 318 315 313 311 312 311 311 310 305 305 304 306
317 316 315 314 314 314 315 315 317 320 318 316 316 316 318 321 323 324 324 319 319 316 313 312 312 312 311 311 310 307 302 302
317 316 315 314 314 314 315 318 319 319 319 318 317 318 320 321 323 325 323 320 319 316 313 312 312 313 311 310 309 307 305 302
318 317 317 316 315 315 316 318 321 322 324 323 323 322 321 323 325 325 324 322 319 317 314 312 313 313 312 311 308 305 303 303
318 317 317 316 316 317 318 321 323 323 324 324 324 323 325 325 325 325 324 322 320 317 314 313 313 312 310 308 306 304 302 301
317 317 319 320 321 321 322 322 323 324 324 324 324 323 324 325 325 324 323 321 319 315 313 313 311 309 309 307 305 304 301 301

GFSFLT2_925_thetae_087.txt.gz
Theta_e
331 333 333 331 327 330 328 329 323 317 332 333 333 331 325 320 318 319 320 319 317 318 317 320 323 323 322 319 316 315 314 317
328 330 334 333 331 329 328 328 323 324 333 333 332 331 327 319 317 317 317 317 317 317 317 316 321 323 321 318 314 314 315 317
329 327 326 331 333 330 328 327 331 327 333 333 332 333 329 317 316 316 317 317 318 316 316 315 319 322 318 314 311 311 312 317
328 326 327 325 332 330 329 327 325 332 332 333 334 334 329 318 315 316 317 317 318 317 316 314 314 314 314 311 309 309 311 317
330 329 329 329 324 327 326 325 325 332 334 334 334 334 329 321 317 315 317 317 318 318 316 315 314 312 310 308 308 306 306 310
328 327 328 328 328 329 326 324 328 331 332 332 333 333 329 324 320 316 316 318 318 318 317 316 313 309 309 308 308 307 307 303
327 325 328 327 326 325 324 324 329 330 331 331 331 331 328 325 322 317 316 318 318 319 319 318 314 309 308 307 307 308 308 306
327 325 326 325 324 322 323 326 327 329 328 330 330 329 326 325 323 317 316 318 318 319 318 316 311 308 307 307 307 307 308 306
326 326 325 324 323 320 321 324 325 326 325 327 327 325 325 323 322 316 317 318 319 319 316 313 309 307 307 306 306 306 305 306
322 325 324 323 322 322 322 322 323 323 323 323 323 323 323 320 319 316 318 318 319 319 316 312 308 307 307 306 306 306 305 305
319 320 321 322 319 321 321 320 320 322 320 318 318 318 318 318 318 317 318 319 319 319 316 311 309 308 307 307 306 306 306 305
317 318 320 319 319 318 320 320 317 324 324 321 319 320 319 319 318 319 319 320 320 319 317 311 310 308 308 307 307 306 305 305
319 318 318 319 316 319 321 321 323 320 323 323 321 320 323 324 320 321 322 320 321 319 316 311 309 308 308 308 306 306 306 305
318 318 317 317 316 317 318 321 316 316 317 317 317 318 321 322 323 323 322 321 321 320 316 310 309 309 310 309 307 308 308 307
317 318 317 317 317 315 315 316 315 317 316 318 319 320 320 320 322 324 323 321 321 320 315 314 310 310 310 310 305 306 305 307
317 317 317 316 316 315 314 314 315 316 316 316 316 318 318 318 320 323 324 323 321 319 316 314 312 311 310 310 309 308 303 303
317 316 317 316 315 315 314 314 315 315 316 316 316 316 317 319 321 322 323 324 323 320 317 313 312 311 311 310 308 306 305 301
317 317 317 317 315 314 314 314 314 315 315 318 317 317 319 318 320 320 321 323 324 322 318 315 312 311 311 311 309 306 304 303
317 317 316 316 315 314 314 314 315 316 316 317 319 318 318 315 314 318 320 323 324 323 319 317 313 312 312 310 310 309 303 304
317 316 316 316 315 314 314 314 315 316 317 318 318 318 317 316 318 320 320 323 324 322 319 317 313 312 311 312 310 308 308 308

GFSFLT2_925_thetae_090.txt.gz
Theta_e
333 333 333 332 333 330 327 328 329 332 334 330 331 330 330 331 330 327 321 319 320 322 322 323 319 318 317 315 315 314 315 317
330 334 330 329 331 327 328 327 327 325 331 333 331 329 328 329 327 321 319 319 319 322 323 321 321 319 316 314 314 315 315 317
329 330 332 333 330 331 330 327 324 325 331 326 331 327 327 325 322 318 318 318 318 320 322 322 321 317 314 312 312 314 316 317
329 328 327 330 333 331 329 326 323 323 329 330 331 325 324 321 319 317 317 317 317 317 321 322 321 315 312 311 310 314 316 317
328 329 327 327 329 331 330 327 325 327 329 331 332 327 323 318 318 318 317 316 315 316 319 319 316 313 310 309 309 312 316 317
328 328 328 328 328 331 328 327 323 322 327 330 332 329 321 317 317 317 317 317 315 315 314 313 313 310 309 308 306 308 310 316
326 327 326 327 328 329 327 324 323 322 330 328 331 328 319 316 317 317 317 317 316 314 313 312 310 309 308 307 307 307 305 314
326 326 325 327 327 326 325 324 323 322 328 330 331 328 319 315 316 317 317 318 317 317 316 313 311 309 307 307 308 307 306 307
325 326 325 324 325 325 324 325 323 319 328 329 330 327 321 318 316 316 317 318 318 318 315 312 310 307 307 307 307 307 306 307
324 326 324 324 324 323 323 323 325 327 329 325 325 326 325 321 317 316 317 318 317 317 315 312 308 307 307 306 306 306 305 305
323 325 324 322 321 320 319 320 323 326 326 326 325 322 326 323 318 316 318 318 318 317 313 313 307 306 306 306 306 306 306 305
320 321 321 320 319 318 321 323 324 325 325 325 325 325 325 324 319 316 318 318 318 316 316 310 308 308 306 306 305 305 305 305
319 319 320 319 320 321 322 323 323 321 321 320 320 322 323 321 317 317 318 318 318 318 314 310 308 307 306 305 305 305 305 305
318 318 317 319 320 320 320 320 323 323 319 315 315 315 318 318 318 318 318 318 319 319 316 312 309 308 308 307 306 307 306 305
318 319 318 318 318 319 319 320 319 321 322 320 320 320 320 319 320 319 319 321 319 319 318 317 310 308 309 309 304 307 305 307
318 319 318 317 317 318 320 320 317 316 317 319 320 321 320 321 321 323 322 321 321 320 319 318 314 310 309 309 309 308 305 305
318 318 317 317 317 316 316 317 316 316 316 317 317 317 319 319 319 319 322 323 323 322 320 316 313 312 310 310 308 306 305 303
317 317 317 316 317 316 314 314 315 315 316 317 317 316 316 317 318 318 319 321 322 323 320 318 315 312 312 311 310 308 305 303
315 316 315 316 315 315 315 315 314 314 314 315 316 316 316 316 316 317 317 319 321 322 323 320 317 313 311 311 310 310 310 310
316 316 315 315 315 314 314 314 314 314 314 315 315 316 316 315 315 316 317 318 320 321 322 321 320 317 314 313 310 311 311 311

GFSFLT2_925_thetae_093.txt.gz
Theta_e
329 330 330 328 329 330 331 328 328 333 332 329 328 330 329 329 331 332 330 325 322 323 321 317 315 315 314 313 313 316 318 319
329 329 325 327 326 331 327 328 330 332 330 331 329 329 330 331 330 329 322 320 321 322 321 318 316 315 314 314 314 316 317 318
328 331 331 327 329 330 330 329 333 333 333 332 330 332 332 330 329 322 320 322 322 322 320 318 317 315 315 314 316 318 317 318
328 328 331 332 332 330 329 334 335 334 333 331 331 332 330 329 324 319 320 323 323 322 320 318 318 319 317 314 317 318 318 318
327 328 328 329 330 330 331 331 333 332 332 330 329 330 329 325 321 318 320 322 325 322 321 320 319 317 316 317 318 318 318 318
327 328 329 328 327 331 329 326 327 331 330 329 328 328 326 324 321 318 317 323 324 323 321 318 313 311 311 310 317 317 318 318
326 327 327 327 327 328 328 326 324 327 329 330 327 327 324 322 318 317 316 317 319 321 320 315 312 310 309 310 310 314 317 318
327 326 326 326 326 326 329 326 324 326 326 326 327 325 322 319 317 317 316 316 318 317 315 313 310 308 307 306 306 309 316 318
326 325 325 326 327 327 328 325 325 326 329 326 328 324 319 318 317 317 316 316 315 314 312 310 309 308 307 307 307 306 310 317
325 324 325 326 324 325 324 324 324 326 326 328 328 323 318 317 317 317 317 316 315 314 312 309 309 308 307 307 307 306 307 312
325 324 324 324 324 324 324 324 323 326 328 327 327 323 316 317 317 317 317 316 316 316 312 310 308 308 307 307 306 306 306 311
323 323 323 323 323 324 324 323 323 322 324 325 324 324 317 316 316 317 317 315 314 315 313 310 308 307 306 306 306 305 305 306
321 321 322 322 322 322 322 323 322 322 324 320 322 323 323 321 317 316 317 316 316 316 311 309 307 306 306 306 305 305 305 305
320 320 320 320 320 320 321 321 321 322 324 321 322 322 323 324 322 317 317 318 317 316 315 309 308 306 309 309 310 308 306 304
319 319 319 320 320 320 321 322 322 322 322 323 322 319 319 319 321 318 317 318 318 318 316 312 310 307 308 312 312 314 311 308
318 318 319 319 319 318 322 321 321 320 320 319 318 317 317 318 318 317 317 317 318 318 318 315 312 311 308 308 309 310 313 313
318 318 318 318 318 319 319 318 320 320 319 318 318 315 316 316 318 319 318 318 319 320 319 318 315 313 311 310 308 307 307 311
319 318 317 317 317 318 317 318 318 318 319 320 318 316 315 318 318 317 318 320 321 321 321 319 318 315 313 311 310 310 308 307
318 318 318 317 317 317 317 318 317 317 316 317 318 319 318 318 319 319 319 319 319 320 321 321 320 317 314 312 311 311 312 310
318 318 318 317 316 316 316 316 316 317 317 316 316 317 317 317 316 316 317 318 318 319 320 320 321 321 319 315 313 311 311 311

GFSFLT2_925_thetae_096.txt.gz
Theta_e
331 323 326 326 336 342 340 339 336 335 334 333 331 329 328 329 330 330 332 328 322 315 312 313 312 312 313 316 318 319 320 320
330 325 325 330 331 334 334 335 334 336 334 333 330 327 326 330 332 332 331 325 324 316 314 315 313 313 313 315 318 319 320 320
330 325 322 327 327 326 329 333 335 335 334 334 331 332 331 332 332 331 327 323 324 316 315 315 314 314 313 314 318 319 320 320
329 327 326 327 327 330 326 328 333 335 333 333 330 332 331 331 331 327 322 322 324 317 316 316 317 318 317 318 319 319 319 320
328 331 331 331 331 332 331 328 330 333 332 330 331 331 331 330 328 325 328 325 325 321 319 320 321 320 318 319 320 319 319 319
330 329 331 331 330 331 330 330 331 332 331 331 332 332 331 327 325 326 328 327 326 324 322 323 322 320 319 319 319 319 319 318
330 330 330 329 331 331 330 330 330 331 331 329 331 331 329 325 324 326 326 326 326 325 324 323 321 319 318 319 319 319 319 318
329 329 329 328 328 328 329 329 330 332 332 330 330 329 326 324 324 324 326 326 326 325 323 320 317 316 317 317 317 318 318 319
327 326 327 325 325 326 328 329 329 329 331 329 328 327 325 324 323 322 322 323 323 323 320 317 314 313 312 312 314 317 317 318
325 325 325 325 325 324 326 328 327 327 329 329 326 325 323 322 322 321 320 321 321 319 317 315 314 313 312 312 312 313 316 318
324 325 323 325 325 325 326 327 327 326 328 329 326 324 323 323 322 321 319 318 318 317 316 316 315 314 313 312 312 312 314 316
323 323 323 324 324 325 325 326 327 327 327 326 325 323 322 321 321 321 319 317 317 316 316 316 316 315 313 312 312 312 311 314
322 322 322 324 324 324 324 324 326 326 326 326 325 323 321 320 321 321 320 319 318 317 317 316 316 314 312 311 311 310 310 310
321 321 322 322 323 323 323 323 324 325 324 323 324 322 320 320 321 321 320 320 319 318 317 316 315 312 312 312 313 311 309 309
323 322 321 322 323 323 323 322 322 322 322 323 323 323 322 320 320 320 321 320 320 318 317 317 316 312 312 314 317 318 316 311
323 322 320 321 322 322 322 321 319 322 322 320 319 320 321 321 322 321 321 321 321 319 318 318 317 315 312 313 315 316 318 318
322 322 319 320 321 321 321 320 319 321 323 322 321 320 322 321 320 321 320 321 321 321 319 319 319 319 316 315 313 313 314 315
321 322 320 320 321 321 319 320 319 320 321 322 323 322 321 319 317 318 318 321 321 322 322 321 320 319 320 318 318 318 317 316
322 321 320 320 321 321 320 320 320 319 320 321 321 320 319 317 317 317 318 318 321 322 323 323 323 321 320 319 317 317 317 315
322 322 321 319 318 319 319 320 320 320 321 320 320 319 318 318 319 317 315 316 319 320 321 323 323 322 322 322 320 320 316 313

GFSFLT2_925_thetae_099.txt.gz
Theta_e
337 332 330 325 324 324 333 341 339 333 334 335 336 336 333 330 331 330 327 323 313 310 310 311 310 311 318 319 320 321 321 320
336 328 324 326 326 325 327 340 338 334 335 336 335 334 331 330 331 329 323 317 312 312 311 310 310 312 317 319 320 321 320 319
334 333 328 324 327 325 328 336 336 335 334 335 334 334 329 331 332 329 321 316 313 314 313 312 311 313 316 319 320 321 321 320
334 333 326 326 329 326 329 332 334 335 336 335 334 333 332 331 333 330 326 316 315 315 314 312 315 316 317 319 321 321 321 320
332 334 327 327 331 327 331 327 328 335 335 334 333 332 330 333 332 330 328 319 321 318 316 318 319 318 319 322 321 321 321 320
333 333 333 332 330 331 334 331 327 332 335 332 333 331 330 332 332 329 328 326 323 322 320 322 322 320 321 321 321 320 320 320
332 332 333 334 332 333 334 332 328 333 333 331 332 331 332 330 329 329 328 327 324 324 323 325 324 321 321 321 321 320 320 320
331 332 332 333 334 334 331 330 328 330 328 331 331 331 330 328 328 329 328 328 326 325 324 325 323 320 320 320 320 320 320 320
330 330 331 331 332 332 332 330 330 329 329 329 331 331 328 326 328 328 327 327 327 326 326 323 321 319 319 319 319 320 320 320
329 328 329 330 329 331 331 330 330 329 330 326 328 328 327 325 327 328 327 327 327 326 324 321 318 316 315 315 317 318 319 320
326 326 328 328 326 325 327 329 329 330 330 327 327 328 325 324 324 324 326 326 325 325 322 319 318 316 315 315 315 315 318 319
326 326 326 325 325 325 325 325 328 329 330 329 328 327 324 323 318 323 323 324 323 322 320 319 319 318 316 315 315 315 316 317
324 326 324 324 324 325 326 327 327 328 329 328 326 325 323 319 318 323 322 322 320 319 320 320 320 319 317 316 315 315 314 315
324 324 324 324 324 324 324 326 327 328 328 327 326 324 320 323 323 323 320 320 320 320 320 321 320 319 317 317 317 314 313 313
325 324 325 322 323 324 324 324 325 326 326 325 323 322 320 317 321 322 321 321 321 320 321 320 320 318 316 318 318 319 317 313
326 325 323 323 323 324 324 325 323 324 324 324 323 321 319 320 321 322 322 322 321 321 321 320 321 319 317 316 317 319 322 321
325 325 323 324 323 324 323 322 322 323 323 323 323 322 321 321 321 321 322 322 322 322 321 320 321 320 318 318 316 317 317 318
324 324 322 322 322 323 323 322 321 322 322 322 322 322 322 320 321 322 323 323 322 322 321 320 321 321 321 320 319 319 318 318
325 324 322 322 322 322 321 320 320 322 323 322 321 321 321 320 321 322 322 323 322 321 320 320 323 323 322 322 322 321 321 320
324 324 323 322 323 323 322 322 320 319 322 323 322 322 322 322 321 318 318 318 317 320 321 319 319 323 324 324 324 323 322 320

GFSFLT2_925_thetae_102.txt.gz
Theta_e
340 339 335 336 340 339 338 337 333 336 334 336 330 330 332 332 331 331 329 325 313 309 310 314 315 319 320 320 321 322 321 321
337 336 332 331 330 331 331 333 325 325 334 337 323 332 334 331 331 329 325 313 309 308 309 312 316 319 320 321 321 321 320 320
335 333 331 329 328 326 325 325 324 323 334 330 327 333 332 331 330 326 320 310 309 309 309 310 314 318 320 320 321 320 320 320
336 335 333 331 327 326 326 324 324 322 334 329 330 334 333 332 329 323 315 311 311 310 309 310 312 318 320 320 321 322 320 319
335 334 332 326 328 325 324 322 324 325 332 329 331 334 332 332 329 323 316 314 313 312 311 311 312 318 319 322 321 322 320 319
334 333 330 328 331 326 328 328 331 334 334 332 334 333 332 332 330 323 317 315 315 313 313 318 315 317 321 322 321 322 320 319
334 333 332 329 329 328 329 329 326 328 332 333 333 332 333 332 330 327 321 321 320 314 320 321 320 318 321 321 322 321 320 319
332 333 333 333 332 329 331 329 324 326 328 333 332 332 333 332 330 329 324 324 323 318 322 324 323 321 321 321 321 321 320 319
331 332 332 332 332 332 332 332 327 328 330 330 331 332 332 330 329 329 328 326 325 323 323 325 323 321 321 321 320 320 320 319
330 330 331 331 331 331 332 331 331 330 327 326 330 330 330 328 328 328 327 327 327 325 326 324 322 320 320 320 320 320 320 320
330 329 328 330 330 329 331 331 330 330 328 328 328 327 328 328 328 328 329 327 328 327 325 323 320 319 318 318 318 319 320 320
328 328 328 328 327 326 326 330 331 331 328 326 328 325 327 327 327 327 328 327 327 326 323 321 318 317 316 316 315 316 318 319
326 327 326 325 325 325 326 326 328 331 330 327 325 326 327 326 325 325 326 326 325 324 322 319 318 318 317 316 315 315 316 317
326 327 325 325 325 325 325 326 326 328 330 328 325 327 325 324 323 323 324 325 324 322 320 319 320 320 319 317 316 315 315 315
325 326 325 325 326 324 324 324 326 327 328 328 326 326 324 322 317 318 322 322 321 320 320 320 322 320 318 318 318 317 315 314
326 325 325 324 324 324 325 326 326 326 328 326 325 325 323 320 319 321 318 321 320 319 320 321 321 318 317 318 317 319 320 315
326 326 324 324 324 325 325 323 324 324 324 324 324 323 321 320 322 320 319 321 320 320 321 321 322 319 318 317 317 317 318 318
326 325 324 324 324 324 324 324 323 324 323 322 321 320 320 320 318 319 322 321 321 320 321 320 320 321 319 318 317 317 317 318
325 324 323 324 324 325 324 323 324 323 323 322 321 320 319 319 316 319 321 320 317 319 321 321 321 321 320 321 320 318 319 319
325 324 322 322 323 323 323 322 323 323 322 322 321 320 319 319 318 321 319 320 319 319 320 321 320 320 321 321 320 320 321 322

GFSFLT2_925_thetae_105.txt.gz
Theta_e
340 339 338 340 340 343 342 340 339 336 334 329 328 328 326 332 331 331 330 327 316 317 320 322 322 320 320 321 323 323 322 320
336 337 336 333 335 341 342 342 338 335 334 328 331 330 328 332 331 331 329 323 311 314 317 322 320 320 320 321 321 321 321 318
331 332 331 330 329 331 332 335 337 335 333 331 330 327 331 332 332 330 326 316 311 312 316 319 320 320 320 320 319 319 319 317
334 334 333 332 331 329 327 327 328 328 325 326 329 329 329 331 331 329 322 313 310 313 312 318 319 320 320 321 320 319 319 318
336 335 333 332 331 326 325 325 327 325 325 325 327 331 332 332 330 327 323 311 310 310 312 316 319 320 321 321 320 320 319 315
335 333 332 329 328 325 324 324 323 324 324 325 326 332 332 331 328 323 315 310 309 310 310 315 319 320 322 321 320 320 319 315
334 333 332 328 329 325 326 328 326 326 325 330 330 331 331 329 326 320 314 312 311 310 311 316 319 322 322 321 321 320 319 316
332 331 332 330 329 327 326 329 328 328 326 329 328 331 331 328 324 318 316 314 311 311 314 314 318 320 322 321 322 320 319 317
330 330 332 332 331 329 328 330 325 329 330 331 331 331 330 329 324 319 317 315 312 318 319 319 319 319 321 321 321 320 319 317
330 331 331 331 331 330 331 330 325 329 330 330 331 331 331 329 326 321 319 317 315 320 322 322 322 321 321 321 321 320 319 319
330 331 331 330 331 331 332 331 326 328 328 330 329 329 330 329 329 324 324 321 319 321 322 324 321 320 321 320 320 320 320 319
329 329 328 330 329 330 331 331 328 329 328 329 330 329 330 329 329 327 327 324 323 322 325 324 321 320 320 319 319 319 320 320
328 327 328 328 327 327 328 331 331 329 328 329 330 330 328 328 328 327 328 326 326 324 325 323 320 319 317 317 316 317 319 319
326 326 326 325 325 325 325 326 329 330 328 327 330 328 324 328 327 327 327 327 327 326 323 320 319 317 315 315 313 315 316 317
325 325 326 325 324 325 324 325 325 327 329 327 328 327 326 327 326 327 327 326 326 324 321 319 318 319 316 316 315 315 313 315
325 325 325 325 324 324 324 324 324 325 325 327 326 326 325 326 324 325 326 326 324 322 320 319 320 320 316 318 318 318 313 312
325 325 324 324 323 323 324 325 325 326 326 326 326 325 325 325 323 323 323 323 323 323 321 319 321 320 319 317 317 317 318 315
325 325 325 324 323 325 324 324 324 326 327 325 325 324 323 322 320 321 321 320 320 320 320 321 321 321 320 319 317 317 316 316
326 325 324 324 323 325 324 324 324 324 324 324 323 322 322 322 320 320 319 320 318 320 320 320 318 321 320 320 319 318 318 318
326 324 323 324 323 324 324 324 324 323 322 321 322 321 321 321 320 319 318 318 319 320 320 316 318 320 320 320 320 318 319 319

GFSFLT2_925_thetae_108.txt.gz
Theta_e
339 340 340 339 340 341 341 338 336 336 332 325 327 330 327 330 330 331 330 330 325 325 327 329 329 325 323 325 325 324 323 322
338 339 338 339 340 342 342 341 337 335 333 327 328 326 326 325 328 331 330 328 322 322 324 325 322 321 323 324 323 322 321 320
336 335 334 332 332 336 340 342 340 335 333 328 328 327 324 328 332 331 329 325 320 322 323 323 319 320 322 323 322 320 318 319
332 332 332 331 330 329 331 336 337 336 333 328 329 325 327 324 333 330 327 321 321 322 322 320 319 321 321 321 321 318 314 317
334 333 333 332 330 331 329 327 327 333 332 329 330 328 327 329 331 330 327 318 319 322 321 319 319 320 320 320 319 318 316 317
335 335 334 332 331 331 326 325 325 329 329 331 330 329 328 332 331 329 325 315 316 319 319 319 320 319 321 320 319 319 317 317
336 334 332 331 328 326 324 324 325 324 328 326 329 329 329 329 329 328 321 314 315 315 318 319 319 319 321 320 319 318 317 316
334 333 331 330 327 327 325 326 326 324 325 325 326 325 329 329 327 326 318 311 313 313 316 319 319 320 321 320 319 319 317 316
333 331 330 331 328 330 326 326 327 324 324 325 325 328 330 327 326 324 316 314 311 309 313 318 320 320 321 321 320 319 317 316
331 330 331 331 331 330 328 327 327 327 325 327 326 326 327 328 325 320 314 312 309 309 313 318 320 320 321 321 320 319 318 317
329 330 331 330 331 331 330 330 328 326 327 329 329 329 329 327 323 318 314 312 310 311 313 316 317 320 320 320 320 319 318 317
329 330 330 330 330 331 331 329 328 329 327 329 329 329 329 326 322 318 316 315 312 317 319 321 320 321 320 319 320 320 319 318
329 330 329 329 329 331 330 327 328 329 330 329 328 330 329 327 322 319 318 318 313 320 322 324 322 320 320 318 317 320 319 319
328 327 328 328 329 329 330 330 327 328 328 329 330 330 329 328 324 321 319 320 317 320 322 322 319 320 318 316 313 314 318 319
327 327 328 327 327 326 326 328 329 328 328 329 329 328 328 328 327 324 323 321 322 320 323 322 319 318 319 315 312 313 312 314
326 326 326 325 325 325 325 325 326 327 328 327 328 329 328 328 327 326 326 325 323 322 324 321 319 316 315 315 316 315 314 313
325 326 325 324 325 324 324 323 323 324 325 328 327 328 327 327 327 327 326 326 325 323 322 320 318 317 316 317 317 318 317 312
325 325 325 324 324 323 323 324 323 323 324 325 326 327 325 324 325 325 326 325 324 322 321 320 319 318 316 317 317 316 316 316
324 324 324 323 323 323 324 323 324 324 325 326 325 326 325 323 324 324 325 325 325 324 322 320 320 320 319 318 318 317 317 317
324 324 324 323 323 323 324 324 324 324 326 325 325 324 324 322 322 322 323 324 324 323 321 321 320 320 319 318 320 319 317 317

GFSFLT2_925_thetae_111.txt.gz
Theta_e
341 340 339 339 338 337 336 336 334 334 334 333 328 326 326 324 331 331 331 331 330 327 324 328 329 327 328 326 324 323 322 322
338 340 340 340 340 341 340 337 337 335 335 329 323 326 327 324 330 331 330 329 328 328 328 329 329 325 326 325 323 323 321 320
338 339 339 339 339 342 340 339 339 336 334 329 324 330 328 326 331 332 330 328 327 328 329 330 325 323 325 324 323 322 321 320
337 338 337 336 337 338 340 340 341 336 334 328 328 330 327 328 324 331 329 326 325 328 328 324 320 323 324 323 322 320 320 319
336 336 335 332 331 330 331 338 339 337 333 327 328 328 326 324 326 331 329 325 325 326 324 320 320 323 322 322 320 318 318 318
335 334 333 331 331 330 329 329 331 331 332 330 327 327 326 326 324 323 330 325 324 324 322 319 320 322 322 321 318 315 315 318
334 333 333 332 332 330 330 329 327 329 331 330 329 327 328 326 329 330 330 325 322 323 321 319 320 321 320 319 318 317 316 317
335 335 334 333 330 329 327 324 325 328 330 329 330 328 328 326 330 329 329 323 320 323 320 319 319 320 320 319 319 318 316 317
334 335 334 332 330 327 324 324 324 325 326 327 329 329 328 330 329 328 328 321 316 321 319 318 318 321 320 319 319 318 317 317
334 335 332 330 329 327 327 326 326 328 326 324 326 328 328 329 327 327 328 318 316 319 318 318 319 320 320 319 319 318 317 316
335 332 330 330 330 329 328 327 325 328 327 325 325 328 328 327 327 326 327 316 314 316 316 317 318 320 320 320 319 319 317 317
333 330 330 331 331 331 330 329 328 328 326 325 325 328 327 327 325 326 324 314 313 313 314 317 318 320 320 320 319 319 318 317
330 330 330 330 331 330 328 328 328 328 327 326 325 327 328 326 325 325 320 313 311 311 314 318 317 319 319 317 318 318 318 317
329 330 330 329 329 331 329 329 327 328 328 328 325 326 326 325 324 322 317 313 311 313 316 317 318 319 317 315 312 315 318 317
328 329 329 329 329 330 329 329 327 328 329 329 329 328 327 325 324 322 317 315 312 314 317 319 319 318 319 317 313 314 313 317
327 328 328 328 328 328 328 327 328 328 327 328 328 329 328 327 326 323 318 317 314 316 319 321 320 317 317 318 316 314 313 313
326 326 327 327 327 327 327 327 327 327 327 327 328 328 328 328 326 322 320 318 319 316 321 321 321 318 317 315 315 315 314 312
325 326 326 325 324 324 324 324 325 325 326 327 327 328 327 328 328 324 322 321 321 320 321 321 320 318 317 317 316 317 316 315
324 324 324 323 323 323 324 323 323 323 323 324 325 327 327 327 327 326 325 323 323 322 321 321 319 318 316 316 317 317 317 317
323 324 324 323 323 322 323 323 323 322 323 323 324 324 326 324 325 326 326 325 324 323 321 320 318 318 317 317 317 317 317 317

GFSFLT2_925_thetae_114.txt.gz
Theta_e
337 337 339 338 334 334 335 335 335 334 334 329 330 330 327 324 323 330 331 332 332 332 331 331 329 327 325 325 324 324 323 324
338 339 338 339 339 336 336 336 336 334 332 331 332 329 325 326 326 327 330 331 331 329 329 326 325 324 324 324 324 323 323 322
339 340 339 339 339 341 338 338 337 336 334 331 327 326 326 325 324 328 330 330 330 327 327 328 328 327 325 324 323 322 321 322
339 339 339 339 339 342 339 339 339 337 336 332 331 326 325 324 324 325 327 329 329 327 329 328 324 327 325 324 323 321 320 320
337 338 339 339 339 340 339 338 339 338 336 333 327 325 327 325 325 325 330 329 327 328 329 327 324 324 324 323 322 321 320 320
337 338 338 337 337 337 338 339 336 337 336 331 326 329 328 326 324 330 330 328 327 329 328 323 322 324 324 323 321 320 318 318
335 336 336 335 333 331 331 332 335 334 334 333 329 329 328 327 327 328 329 327 324 328 324 320 322 323 323 322 319 315 315 318
333 334 335 334 331 331 330 329 328 329 331 332 330 328 327 327 328 328 328 326 322 326 322 319 321 322 321 320 316 315 316 318
331 332 333 332 332 332 331 329 328 328 327 330 329 328 328 327 327 328 328 327 322 325 321 319 320 321 320 319 317 317 316 317
330 332 333 333 333 332 330 327 325 326 329 330 330 328 327 328 328 327 326 327 321 324 320 319 319 320 319 319 318 318 317 317
330 332 333 334 333 330 327 325 323 324 325 327 328 328 328 328 327 328 326 326 321 323 320 318 319 319 319 318 318 318 317 317
330 332 334 334 330 329 327 326 327 326 326 327 326 326 328 328 327 327 326 325 319 321 320 317 318 319 319 317 318 318 317 316
330 332 333 331 328 327 327 327 328 326 327 327 326 325 326 327 326 326 325 325 317 319 319 317 317 318 318 316 317 317 317 317
330 332 331 329 328 327 327 326 327 328 327 326 325 326 325 323 323 324 324 321 315 316 316 315 317 319 318 316 314 316 317 317
328 329 330 329 330 327 327 326 328 328 327 325 325 327 327 327 326 325 324 321 314 314 315 316 317 318 318 317 313 316 314 317
327 328 328 329 329 327 327 327 327 328 327 327 325 327 326 325 325 323 323 321 312 312 314 316 317 317 318 317 318 315 314 313
327 326 326 328 328 328 327 327 326 326 328 328 327 325 326 326 325 324 323 318 312 311 314 316 317 317 317 316 315 314 314 312
325 325 325 327 327 327 327 327 327 327 327 327 328 328 327 325 325 324 322 319 314 311 313 315 318 318 318 318 316 315 315 313
324 324 324 325 326 326 326 326 327 327 327 327 327 327 328 327 326 325 324 321 317 313 316 317 319 319 318 317 317 316 316 317
323 323 324 324 324 325 325 324 324 325 326 326 327 327 327 327 327 325 323 322 319 317 316 318 320 320 319 317 316 316 317 317

GFSFLT2_925_thetae_117.txt.gz
Theta_e
336 337 338 336 333 335 337 336 336 336 341 336 333 335 333 325 331 325 331 333 332 332 334 333 333 332 331 329 328 326 327 326
336 337 339 341 340 337 336 338 336 338 339 331 335 334 329 330 328 327 329 325 331 332 333 332 331 330 329 327 325 324 325 325
337 337 338 341 340 340 338 337 336 336 337 335 333 330 329 328 324 324 323 324 331 331 331 331 329 328 326 324 323 324 324 324
338 338 338 342 343 340 339 338 337 336 337 333 330 330 331 329 326 325 325 328 330 331 330 328 325 326 324 324 324 323 323 323
338 338 340 341 342 340 338 338 338 337 336 334 332 330 326 327 328 328 329 330 329 329 327 328 328 327 325 323 323 322 322 322
336 338 339 340 341 341 339 338 339 338 337 335 332 329 326 328 330 331 331 331 329 327 327 327 328 326 324 323 323 322 322 321
332 335 338 339 340 340 339 336 335 337 336 335 332 331 329 327 328 329 329 330 330 326 326 325 325 324 324 323 322 322 320 321
331 333 336 337 338 338 338 337 334 334 336 334 333 331 328 327 327 328 330 329 329 325 327 326 324 323 323 322 321 320 320 321
328 330 333 336 336 336 334 334 334 334 334 333 332 329 327 327 327 326 329 328 327 325 325 323 322 323 323 321 319 318 320 321
324 328 332 334 335 334 331 330 329 328 328 328 331 329 328 328 328 328 328 328 326 325 323 321 321 322 322 320 319 319 320 320
322 328 331 332 333 332 330 331 330 327 327 327 329 329 329 328 328 328 327 327 324 323 322 321 321 321 321 320 319 319 320 320
323 329 330 331 331 330 330 328 327 327 327 328 327 328 329 328 328 327 326 324 322 321 321 320 321 321 319 319 319 319 319 319
328 330 330 329 329 328 327 325 325 325 324 324 325 326 327 328 328 327 325 324 321 321 319 319 320 320 319 319 318 318 319 319
329 330 329 330 330 329 328 326 326 329 328 326 326 326 326 326 327 325 324 323 321 319 319 319 320 319 321 320 321 319 318 318
329 330 329 330 330 329 328 326 326 327 327 327 326 326 325 325 326 324 323 321 319 319 319 319 319 319 320 321 322 324 319 318
328 329 328 329 329 328 328 327 327 326 328 327 326 325 325 324 323 323 321 320 318 318 318 319 318 320 319 318 321 319 323 320
328 328 328 327 327 327 328 326 326 328 328 326 326 325 323 323 323 323 322 319 319 316 317 318 319 320 320 318 317 317 319 320
327 328 325 327 328 327 327 326 326 327 327 327 325 326 325 323 324 323 323 318 317 315 316 317 318 319 320 318 318 318 318 318
325 325 324 324 327 327 326 326 328 327 327 328 327 326 326 325 325 323 322 323 319 314 315 316 317 319 319 318 318 318 317 318
323 324 324 323 325 325 325 327 327 328 327 328 327 327 326 325 325 325 324 321 320 315 314 316 317 318 318 318 317 317 316 316

GFSFLT2_925_thetae_120.txt.gz
Theta_e
343 332 339 338 338 337 336 336 335 337 340 339 338 337 334 332 331 333 331 334 334 334 333 333 335 334 333 332 330 329 328 326
344 341 339 342 340 338 337 337 335 334 339 340 338 335 333 333 330 331 334 330 331 332 333 333 334 333 332 330 329 327 326 325
344 344 342 343 343 341 338 338 335 336 340 340 338 337 336 332 332 330 327 328 331 331 332 332 333 331 330 329 327 324 325 324
344 344 342 342 343 341 341 341 340 340 341 340 336 335 336 334 333 328 328 332 331 332 333 332 331 330 328 326 325 325 324 323
343 343 342 342 342 341 340 340 340 340 340 340 338 336 335 334 332 331 328 330 329 329 331 331 330 327 325 325 326 325 323 322
342 342 341 341 342 340 341 342 340 341 340 340 337 335 335 333 332 329 331 332 331 332 331 329 327 325 326 327 326 324 323 321
338 341 340 340 341 341 340 340 341 341 339 339 337 334 334 333 332 330 329 331 332 330 329 327 327 327 327 327 325 324 322 321
334 338 340 340 340 339 339 339 339 338 338 338 338 335 333 331 330 332 330 331 331 328 328 327 327 328 327 327 325 322 321 321
327 331 337 340 340 339 337 337 337 338 339 337 337 335 334 329 329 330 329 330 330 328 327 326 326 327 327 326 324 321 320 321
320 325 331 337 339 340 338 335 335 336 337 335 335 335 334 332 331 330 329 327 328 327 326 326 326 327 326 325 323 322 322 320
319 322 328 333 337 338 339 337 335 336 336 336 334 333 332 331 330 329 328 328 328 326 326 325 326 326 326 324 322 322 322 320
319 319 325 331 335 337 337 333 331 331 331 332 333 331 331 331 329 328 327 327 326 325 325 325 326 326 325 323 323 323 323 322
325 326 328 332 335 336 333 330 328 329 328 328 328 329 330 329 329 328 327 326 325 325 325 325 324 325 324 323 323 323 323 322
328 330 331 333 333 333 332 331 331 329 326 327 326 327 328 328 328 328 326 325 325 324 325 325 324 325 324 323 324 323 322 322
329 330 332 332 332 331 333 331 330 326 327 326 326 328 330 329 328 328 325 324 323 323 324 324 325 324 323 323 325 325 323 322
330 331 332 330 332 331 333 332 332 330 329 329 329 330 328 326 326 326 324 324 323 322 323 323 324 325 324 322 321 321 325 325
330 331 330 329 331 333 333 334 332 330 329 330 330 327 326 326 325 325 325 324 323 322 323 324 324 324 324 323 323 324 322 323
328 329 329 329 330 333 333 333 331 331 331 330 329 325 324 324 323 322 322 322 322 321 322 323 324 324 323 323 323 323 323 323
326 326 328 326 327 331 332 331 330 330 331 330 329 326 323 322 322 321 319 319 320 320 320 322 322 324 323 323 322 321 320 321
325 327 326 326 325 327 330 330 328 329 330 330 328 328 325 323 321 320 319 319 320 319 320 322 322 323 323 323 322 321 321 320

GFSFLT2_925_thetae_126.txt.gz
Theta_e
342 331 328 330 333 335 334 336 341 342 344 345 342 341 340 339 333 324 328 323 330 331 328 331 333 334 332 329 329 330 331 333
347 335 332 332 334 334 334 334 338 343 343 344 342 340 339 338 331 329 326 326 329 328 332 332 331 331 332 330 328 327 330 331
347 345 340 338 337 335 336 335 335 342 345 344 343 341 340 338 330 331 326 330 327 330 330 330 329 328 331 331 327 327 329 331
348 347 345 345 344 342 336 336 335 338 343 343 343 342 340 337 334 333 329 331 333 333 330 328 327 328 329 331 326 324 328 329
348 349 346 346 344 345 341 341 338 339 341 342 341 341 341 338 337 334 334 333 334 332 331 328 329 331 331 330 325 327 327 327
346 348 348 345 346 343 343 343 342 342 340 341 342 341 340 338 336 335 334 333 331 331 328 328 329 330 330 329 326 327 327 325
345 347 348 347 346 343 341 343 343 343 342 341 343 342 340 338 337 335 333 333 329 332 328 328 329 330 329 326 326 326 326 324
344 344 348 347 345 345 342 342 343 343 343 342 341 343 340 339 338 336 334 332 331 332 329 327 328 328 328 325 325 325 324 323
333 342 345 346 346 346 343 342 345 342 342 343 342 343 341 339 338 336 334 332 331 331 327 325 327 328 326 324 325 325 323 323
330 336 339 345 345 345 343 341 342 345 343 342 343 342 341 339 338 337 334 332 331 330 327 326 326 327 327 325 326 323 323 323
322 322 334 338 345 345 342 339 340 342 344 343 343 343 341 340 338 336 335 332 331 329 326 326 326 327 326 325 326 323 321 323
320 319 320 326 339 344 344 341 339 339 340 343 342 340 342 340 338 337 335 333 331 328 327 328 327 327 326 325 325 322 321 322
325 325 323 323 325 336 341 343 341 340 338 338 342 338 338 338 338 336 334 332 330 328 328 327 327 327 327 325 325 322 321 321
325 328 329 328 327 325 334 339 343 340 338 336 339 340 337 337 336 335 333 332 330 329 328 327 326 327 326 325 323 323 323 322
331 331 331 330 330 329 331 338 339 337 336 336 334 339 337 337 336 334 333 332 329 328 327 326 324 326 326 324 323 323 323 322
330 332 333 332 332 332 336 337 334 333 333 333 334 335 335 333 333 333 330 329 328 328 327 326 324 324 326 324 323 323 323 323
326 330 332 334 335 334 337 335 334 333 332 331 332 332 332 332 332 330 330 329 327 327 327 326 324 323 325 324 323 324 323 322
328 329 329 330 331 332 335 336 333 332 331 331 331 331 332 331 329 332 329 328 328 327 326 326 324 323 325 324 324 324 323 322
324 326 328 330 329 329 331 334 333 332 335 334 333 332 332 331 330 332 330 328 327 327 326 326 324 323 324 324 324 324 323 323
322 323 327 330 329 328 329 332 333 333 334 333 332 332 330 329 331 330 329 328 327 327 326 325 325 323 325 324 324 323 324 324

GFSFLT2_925_thetae_129.txt.gz
Theta_e
336 326 326 330 332 332 333 332 336 341 340 340 340 339 340 338 332 325 327 323 324 327 327 328 329 332 328 332 330 331 332 330
336 329 327 330 333 334 333 333 337 341 342 343 341 340 339 339 335 324 327 325 329 329 330 332 333 332 328 331 329 329 332 331
340 331 328 330 332 334 334 334 333 340 342 343 342 340 340 340 338 326 326 325 329 327 328 330 327 327 329 329 328 328 331 330
344 340 330 331 333 334 335 335 334 337 341 342 342 341 340 339 335 329 327 327 328 325 329 329 328 328 327 328 328 329 331 330
346 345 340 334 335 335 335 335 336 335 340 342 342 341 340 339 336 332 328 329 329 332 332 329 328 327 326 327 327 328 330 329
347 346 345 341 340 342 337 335 335 335 336 340 341 342 341 339 336 334 330 330 331 333 330 329 326 327 324 326 328 327 328 326
348 347 346 344 342 344 343 338 337 336 336 339 339 340 341 340 337 336 334 332 333 332 330 328 327 327 328 326 325 327 326 324
347 347 347 345 344 344 343 341 343 340 339 339 341 339 340 340 338 336 335 333 333 330 329 328 329 328 329 327 326 326 324 322
345 347 347 346 345 344 343 341 342 343 341 341 340 342 341 340 338 336 334 333 332 330 329 327 327 327 327 324 326 326 324 322
339 346 347 346 346 345 344 343 339 344 343 342 341 341 343 340 338 337 335 333 332 331 329 327 326 326 326 321 325 325 323 321
337 345 347 346 346 345 344 344 342 340 343 342 343 342 342 341 338 338 336 333 332 332 330 326 325 325 327 326 326 323 322 321
320 323 337 343 343 344 345 344 343 338 341 343 341 343 342 341 339 338 336 333 332 331 329 326 326 325 326 327 325 323 323 322
324 325 324 324 341 343 343 342 342 339 338 339 341 342 342 341 339 337 336 334 332 331 329 327 326 326 327 326 324 323 323 323
327 330 330 330 328 332 341 342 341 341 339 338 339 338 340 341 340 337 336 334 332 331 328 327 327 326 326 324 324 322 321 323
329 330 332 332 331 330 326 339 342 341 339 339 338 338 338 340 339 338 336 335 332 330 329 327 327 326 326 324 323 324 322 322
326 325 328 332 333 332 328 328 337 339 338 338 337 334 337 339 337 337 336 334 332 330 329 327 326 326 326 324 323 323 323 323
326 327 327 328 333 334 334 334 334 336 336 337 334 334 334 336 337 336 335 333 331 330 328 327 326 326 326 325 323 322 322 321
324 324 325 328 328 328 332 336 335 334 333 333 333 333 334 335 334 335 334 332 330 329 329 327 326 325 325 325 323 322 321 321
322 321 323 329 329 327 329 330 335 334 333 332 331 330 332 333 332 332 332 330 328 328 328 327 326 325 324 325 324 323 322 321
321 321 321 321 326 328 327 328 330 334 332 331 331 330 330 331 331 331 330 328 328 327 327 327 326 325 324 325 324 323 322 321

GFSFLT2_925_thetae_132.txt.gz
Theta_e
323 324 326 328 330 332 332 332 334 338 339 339 339 339 338 337 335 327 324 325 327 330 331 327 328 333 332 330 331 333 332 331
325 324 327 328 331 331 331 331 334 338 340 340 339 339 338 338 331 327 324 323 327 331 329 326 327 332 331 331 330 330 331 330
332 325 327 329 331 332 332 332 333 339 338 340 340 340 339 338 333 326 327 325 326 327 326 329 330 332 328 330 329 330 330 329
335 329 327 331 332 335 336 335 336 340 337 341 341 339 339 339 336 328 327 327 328 327 328 330 324 325 326 330 328 328 330 329
337 334 327 329 333 335 337 338 336 339 338 340 341 340 340 339 336 327 327 327 328 325 328 328 326 325 326 328 327 327 329 329
341 339 332 328 332 334 336 339 338 339 338 340 339 341 340 339 337 332 328 327 328 325 329 329 327 327 327 325 327 327 330 329
342 343 342 333 331 332 334 336 339 337 337 340 342 340 340 339 337 334 331 327 328 327 330 330 328 327 327 328 328 326 329 329
343 344 344 342 336 335 335 335 335 336 336 338 340 343 341 340 338 335 333 328 329 329 331 330 328 326 327 327 327 327 328 327
345 344 345 345 342 339 340 339 337 335 335 336 340 339 340 340 338 336 335 332 330 331 332 330 327 327 325 326 326 326 326 325
342 345 345 345 344 343 342 342 341 339 339 338 337 339 340 340 340 337 336 335 333 333 331 330 328 327 327 327 326 325 325 323
332 344 345 345 345 344 343 343 342 341 342 342 340 340 341 340 340 338 337 335 334 333 331 329 329 328 327 326 324 324 324 322
325 343 346 346 345 344 343 343 342 341 341 342 341 341 340 341 340 339 337 335 333 332 331 330 327 326 325 323 323 324 323 322
337 344 346 346 343 343 342 342 342 341 341 340 341 341 341 341 340 338 337 335 333 331 330 328 326 325 326 325 324 323 322 322
326 326 328 339 341 340 339 341 341 342 341 338 340 340 339 340 339 337 336 334 332 331 330 327 326 325 326 326 325 324 322 322
329 330 331 332 332 331 337 340 340 340 339 340 338 338 340 340 337 337 335 334 333 331 330 328 327 326 326 325 324 325 322 321
326 326 327 330 333 333 329 338 339 339 338 338 340 338 336 338 338 337 336 334 332 332 331 329 327 326 326 325 324 323 321 321
325 326 326 327 328 332 333 331 331 334 339 338 336 334 333 336 336 336 336 334 333 332 331 328 327 326 326 325 324 322 321 321
320 322 326 327 328 327 327 330 334 333 334 336 336 333 334 334 333 335 337 335 333 332 332 330 328 326 326 326 324 323 322 321
320 322 324 327 328 328 327 326 328 333 334 334 334 334 334 333 333 333 335 335 334 332 331 329 327 326 326 326 325 323 322 321
320 319 319 318 319 323 326 326 326 327 330 331 333 331 331 331 332 333 333 334 333 331 330 330 327 326 325 325 326 324 322 321

GFSFLT2_925_thetae_135.txt.gz
Theta_e
328 326 326 327 329 331 333 334 334 336 337 338 338 338 337 337 333 330 327 327 331 331 332 333 333 332 333 333 333 333 331 329
329 327 327 328 330 332 332 332 333 335 337 338 338 338 338 336 333 327 323 324 327 330 331 331 333 332 331 332 332 332 332 329
328 327 328 329 331 332 333 333 333 335 338 338 339 339 338 337 332 327 324 322 325 330 330 328 330 331 331 330 329 329 329 330
328 326 328 329 332 333 334 334 335 337 339 339 339 339 338 338 333 327 326 323 327 330 329 327 332 332 331 330 326 326 330 329
329 326 327 329 332 335 338 337 337 339 338 340 340 339 339 338 335 327 326 325 327 328 327 329 330 329 331 329 328 328 329 329
333 330 329 330 332 335 341 340 338 341 338 339 340 340 340 339 336 331 327 325 328 328 328 328 328 326 327 327 328 327 327 328
336 334 330 329 332 333 338 340 339 342 340 340 340 340 340 339 337 334 328 326 329 328 327 328 328 328 328 327 326 326 324 327
338 336 335 331 331 331 333 337 338 339 340 338 337 337 338 338 338 334 330 327 327 328 325 328 328 328 328 327 327 326 326 327
341 339 338 335 331 330 332 333 337 337 338 339 336 337 337 335 338 336 332 330 328 327 326 330 329 328 326 324 325 327 326 327
341 342 341 340 338 334 332 331 334 335 337 338 338 337 337 336 337 337 335 333 330 328 329 330 330 327 325 324 325 326 327 327
339 343 343 343 342 340 337 336 336 335 335 334 335 338 337 338 339 338 337 335 333 330 330 331 329 327 327 326 326 326 326 326
327 340 343 343 343 342 340 340 340 340 339 338 337 337 340 339 339 338 338 336 334 332 331 332 329 328 327 327 326 325 325 325
319 338 343 343 342 341 340 340 341 341 341 341 341 341 339 338 339 339 338 336 335 333 331 331 328 328 327 324 324 324 324 324
319 335 342 343 342 341 340 339 340 341 340 341 341 341 341 340 339 337 337 334 333 331 330 328 327 327 326 324 323 322 322 322
331 339 342 344 343 340 340 339 339 338 339 340 339 340 340 340 339 338 336 334 332 331 331 330 327 326 326 325 325 326 322 321
330 331 332 333 332 332 333 337 338 338 338 337 338 339 338 337 339 338 336 334 330 332 332 330 328 326 325 326 325 323 324 321
326 328 330 332 333 333 331 329 332 337 337 337 336 335 338 337 336 337 335 334 332 331 330 329 328 328 326 325 325 322 323 320
326 326 328 327 327 326 326 327 329 333 332 333 334 333 334 334 333 334 335 333 332 331 331 330 328 328 327 326 325 323 321 319
325 326 324 327 327 326 326 325 325 327 330 332 332 334 333 332 331 332 334 333 333 332 330 329 328 328 327 326 325 325 323 321
319 318 318 318 320 321 323 324 324 325 326 328 330 331 332 332 331 331 332 332 333 332 330 329 329 329 327 326 326 325 324 322

GFSFLT2_925_thetae_138.txt.gz
Theta_e
329 332 333 333 333 334 335 336 335 335 335 336 336 336 336 335 333 330 331 334 332 333 333 333 333 334 332 333 333 332 331 330
330 332 335 336 335 333 334 335 335 335 335 336 336 336 336 335 331 328 329 331 332 332 333 333 333 332 331 332 332 332 330 328
330 332 334 336 335 334 334 335 335 336 336 337 337 337 337 336 331 326 324 325 331 332 332 332 332 332 332 332 331 330 330 329
330 331 334 335 335 335 335 336 336 336 338 338 338 337 337 337 334 326 323 323 325 330 331 331 332 332 331 330 330 329 328 330
331 331 332 333 334 335 337 337 337 338 339 339 339 338 338 338 336 326 325 324 326 331 331 329 332 331 330 329 328 326 328 329
332 335 333 333 333 334 335 339 339 344 340 340 344 340 339 338 336 327 326 325 327 331 330 329 331 331 330 329 328 327 328 328
333 332 334 332 333 332 332 334 336 340 341 340 344 343 339 339 338 331 327 326 325 327 328 329 330 326 325 327 327 327 325 324
335 335 332 333 332 331 331 333 334 336 342 338 341 338 338 338 338 334 330 327 326 327 327 328 329 328 327 328 326 325 324 322
335 334 336 333 332 332 332 334 335 335 339 339 338 339 340 337 337 337 333 329 327 329 328 326 329 329 328 327 327 326 324 323
326 337 337 336 333 332 332 332 334 334 336 337 336 335 336 335 335 335 335 331 329 328 328 326 328 329 328 326 325 325 326 325
314 323 337 337 336 334 333 332 333 334 334 334 336 335 335 335 334 334 334 333 330 329 330 328 329 329 328 325 324 324 325 326
313 318 334 338 337 335 335 333 333 333 334 335 336 336 334 335 335 334 333 334 331 332 331 330 329 329 327 326 325 325 325 325
314 316 334 340 339 338 337 337 335 336 336 335 335 336 336 335 335 334 333 336 335 333 332 328 329 329 327 326 325 325 326 325
316 314 334 340 340 340 339 338 338 338 338 337 337 336 335 335 335 334 333 337 334 333 331 328 329 329 327 324 324 322 323 324
319 317 329 340 341 340 340 337 336 337 337 339 337 338 338 338 339 335 335 335 333 332 331 329 328 327 328 324 324 323 320 321
326 327 337 339 340 338 338 337 336 336 336 334 334 336 338 340 342 339 335 334 332 331 331 330 329 327 327 326 325 323 320 323
329 336 337 336 340 339 337 337 337 335 336 336 336 336 337 339 338 340 337 334 333 331 331 328 329 328 327 326 324 323 323 320
327 330 329 328 329 329 330 330 331 331 332 333 335 337 336 336 338 338 336 334 332 331 331 329 328 329 327 326 325 323 321 321
326 325 325 326 325 325 325 325 326 327 328 330 332 332 331 333 334 336 334 332 331 330 329 329 329 328 327 326 325 325 324 322
317 317 316 318 322 323 321 321 323 324 325 326 328 329 330 331 331 334 332 332 332 331 330 329 329 327 328 327 326 325 324 323